GFSNGP_850_temp_132.txt.gz
Temp
6 7 7 7 7 7 5 5 4 2 3 1 -0 -0 -1 -2 -3 -4 -4 -4 -5 -5 -4 -5 -5 -5 -5 -4 -4 -5 -4 -4 -5 -5 -5 -6 -5 -2 -1 2 2 3 4 3
5 7 6 5 6 6 6 6 4 5 3 1 -0 -1 -2 -3 -3 -4 -4 -5 -5 -5 -5 -5 -5 -5 -5 -5 -5 -5 -5 -5 -5 -6 -6 -5 -4 -4 -2 -1 2 3 2 2
4 7 6 4 4 5 5 5 5 4 3 0 -0 -1 -2 -3 -4 -4 -4 -5 -5 -5 -5 -5 -5 -5 -5 -5 -6 -5 -5 -4 -3 -3 -2 -3 -3 -2 -1 -1 1 2 3 2
4 6 3 5 6 6 6 7 3 2 1 0 -0 -2 -3 -4 -4 -4 -4 -5 -5 -5 -5 -5 -5 -5 -6 -6 -6 -5 -5 -4 -3 -3 -3 -3 -4 -4 -4 -3 -3 -0 -0 -1
5 5 4 6 5 5 6 5 3 1 -1 -2 -3 -4 -4 -4 -4 -4 -4 -5 -5 -5 -6 -5 -6 -6 -6 -6 -6 -6 -7 -7 -6 -6 -5 -5 -5 -5 -4 -3 -1 -2 -3 -3
3 5 4 4 4 4 6 3 3 1 -1 -3 -4 -1 -3 -4 -4 -4 -4 -5 -5 -5 -5 -5 -6 -6 -5 -7 -7 -7 -7 -8 -7 -7 -7 -7 -6 -6 -5 -4 -3 -3 -2 -2
4 4 5 3 3 4 5 3 3 1 -1 -3 -3 -1 -3 -3 -4 -4 -4 -5 -5 -5 -5 -6 -6 -6 -5 -6 -8 -8 -7 -7 -7 -7 -7 -7 -6 -6 -5 -4 -4 -4 -4 -4
4 4 4 2 2 3 1 -1 0 1 0 -2 -2 -3 -4 -4 -4 -4 -5 -5 -5 -5 -5 -6 -6 -6 -6 -6 -7 -7 -6 -7 -7 -8 -8 -7 -7 -6 -5 -5 -4 -4 -5 -5
3 2 -0 0 0 2 2 1 -1 -1 -1 -2 -3 -4 -4 -4 -4 -5 -5 -5 -6 -6 -6 -6 -6 -6 -7 -8 -7 -8 -7 -8 -9 -9 -9 -8 -8 -8 -7 -6 -6 -7 -7 -7
1 -0 -1 -0 -0 0 1 1 -1 -1 -3 -3 -4 -5 -5 -5 -5 -5 -6 -6 -6 -6 -6 -6 -6 -7 -7 -8 -8 -8 -9 -8 -8 -8 -8 -8 -8 -8 -8 -9 -10 -10 -10 -10
0 -0 -1 -1 -1 -1 -2 -1 -2 -3 -4 -4 -5 -6 -6 -6 -6 -5 -6 -6 -7 -7 -7 -7 -8 -7 -7 -7 -8 -8 -9 -9 -9 -9 -10 -10 -10 -10 -10 -11 -12 -12 -12 -13
0 0 -0 -1 -2 -1 -2 -3 -3 -4 -5 -5 -5 -6 -7 -7 -6 -6 -6 -7 -7 -7 -8 -8 -8 -8 -9 -9 -9 -10 -10 -10 -9 -10 -10 -11 -12 -12 -12 -13 -12 -13 -13 -13
2 0 1 -1 -2 -2 -3 -3 -3 -4 -4 -5 -6 -7 -7 -6 -6 -6 -7 -7 -7 -8 -8 -9 -9 -9 -9 -10 -11 -11 -11 -12 -13 -13 -13 -13 -13 -13 -13 -13 -13 -13 -14 -14
2 -0 -3 -3 -3 -3 -3 -3 -4 -4 -5 -5 -5 -6 -5 -5 -6 -7 -7 -8 -8 -9 -9 -9 -9 -9 -10 -11 -11 -11 -12 -12 -13 -13 -14 -14 -14 -14 -14 -14 -14 -14 -15 -15
0 -0 -0 -2 -3 -4 -3 -4 -5 -5 -5 -6 -5 -5 -6 -6 -6 -7 -7 -8 -9 -9 -9 -10 -10 -10 -11 -11 -11 -11 -12 -13 -13 -13 -14 -14 -14 -15 -15 -15 -15 -15 -15 -15
-0 -1 -2 -3 -4 -4 -4 -4 -4 -5 -5 -5 -6 -6 -6 -7 -7 -8 -8 -9 -9 -9 -9 -10 -10 -11 -11 -12 -12 -13 -13 -13 -14 -14 -14 -15 -15 -15 -15 -15 -15 -16 -16 -16
-2 -3 -4 -4 -4 -4 -4 -4 -4 -5 -5 -6 -6 -6 -7 -7 -8 -8 -8 -9 -9 -9 -10 -10 -11 -12 -12 -13 -13 -14 -14 -14 -14 -14 -15 -15 -15 -15 -15 -15 -16 -16 -16 -16
-0 -1 -3 -3 -3 -4 -4 -4 -4 -5 -5 -6 -6 -7 -7 -7 -7 -8 -8 -9 -9 -10 -10 -11 -12 -13 -13 -13 -14 -14 -15 -14 -14 -14 -15 -15 -15 -15 -16 -16 -16 -16 -16 -16
-1 -1 -2 -2 -3 -3 -4 -4 -5 -5 -6 -6 -7 -7 -7 -8 -8 -9 -9 -9 -10 -11 -12 -12 -13 -13 -13 -13 -14 -14 -15 -14 -14 -15 -15 -15 -15 -16 -16 -16 -16 -16 -16 -16
-1 -1 -2 -2 -3 -3 -4 -4 -5 -6 -6 -6 -7 -7 -8 -8 -9 -9 -10 -11 -11 -12 -12 -12 -13 -13 -13 -14 -14 -14 -14 -15 -15 -16 -16 -16 -16 -16 -17 -17 -17 -17 -17 -17
-1 -1 -2 -2 -3 -4 -4 -4 -5 -6 -6 -7 -7 -8 -8 -9 -10 -10 -11 -11 -12 -13 -13 -13 -13 -13 -14 -14 -15 -15 -15 -16 -16 -17 -17 -17 -17 -18 -18 -18 -19 -19 -18 -18
-1 -1 -2 -3 -3 -4 -5 -6 -6 -6 -7 -8 -9 -9 -9 -10 -10 -11 -12 -12 -13 -13 -13 -13 -14 -14 -15 -15 -16 -16 -16 -17 -18 -18 -18 -18 -19 -20 -20 -20 -21 -21 -21 -20
-1 -2 -2 -3 -4 -5 -6 -6 -7 -7 -7 -8 -9 -9 -10 -10 -10 -11 -12 -12 -13 -13 -13 -14 -14 -15 -16 -16 -16 -17 -17 -17 -18 -18 -19 -20 -21 -21 -21 -22 -22 -22 -22 -22
-2 -3 -4 -5 -5 -6 -6 -7 -8 -8 -9 -9 -10 -10 -10 -10 -11 -11 -12 -13 -13 -14 -14 -15 -15 -16 -16 -16 -16 -17 -17 -17 -18 -19 -20 -21 -21 -22 -22 -23 -23 -23 -23 -24
-4 -4 -5 -5 -6 -6 -7 -7 -8 -9 -9 -10 -10 -11 -11 -11 -11 -12 -12 -13 -14 -15 -15 -15 -16 -16 -16 -16 -17 -17 -18 -19 -19 -20 -20 -21 -21 -22 -23 -23 -24 -24 -24 -25
-4 -5 -5 -6 -6 -7 -7 -7 -8 -9 -9 -10 -11 -11 -11 -12 -12 -13 -14 -14 -15 -15 -16 -15 -16 -16 -17 -17 -18 -18 -19 -19 -20 -20 -21 -22 -22 -23 -24 -24 -24 -25 -25 -25
-6 -6 -7 -7 -8 -8 -8 -8 -9 -9 -10 -10 -11 -11 -12 -12 -13 -14 -14 -15 -15 -16 -16 -16 -17 -17 -18 -18 -19 -19 -19 -20 -21 -21 -22 -23 -23 -24 -25 -25 -25 -26 -26 -25

GFSNGP_850_temp_135.txt.gz
Temp
5 6 6 6 6 6 6 6 4 4 4 3 1 -2 -1 -3 -3 -3 -4 -4 -4 -5 -5 -5 -5 -5 -5 -5 -3 -3 -3 -3 -3 -4 -4 -4 -3 -4 -6 -7 -4 -3 -1 1
1 5 5 5 5 5 5 5 5 5 4 1 -0 -1 -2 -3 -3 -4 -4 -4 -5 -5 -5 -5 -6 -5 -6 -6 -6 -4 -4 -5 -4 -4 -5 -4 -4 -5 -4 -3 -3 -5 -2 -1
4 5 5 4 4 4 5 5 6 4 5 -1 -1 -1 -2 -3 -3 -4 -4 -5 -5 -5 -5 -5 -6 -6 -6 -6 -6 -6 -6 -6 -5 -5 -4 -5 -4 -2 -4 -2 -2 -2 -2 -2
4 4 4 4 5 5 5 6 5 2 -0 -0 -1 -2 -2 -3 -3 -4 -4 -5 -5 -5 -5 -6 -6 -6 -6 -6 -6 -7 -7 -7 -6 -6 -5 -5 -4 -4 -5 -4 -3 -3 -3 -4
3 4 5 5 5 5 5 5 3 1 -1 -3 -3 -3 -4 -4 -4 -4 -4 -5 -5 -6 -6 -6 -5 -6 -6 -6 -7 -6 -7 -7 -7 -6 -5 -4 -4 -4 -5 -5 -5 -6 -6 -6
3 4 4 4 4 4 5 4 2 0 -2 -3 -3 -2 -4 -4 -4 -4 -5 -5 -5 -5 -6 -6 -6 -6 -6 -6 -7 -7 -7 -7 -7 -7 -6 -6 -6 -6 -6 -6 -8 -8 -8 -7
3 4 4 4 4 4 4 3 2 1 -2 -3 -2 -1 -1 -4 -4 -4 -5 -5 -5 -5 -5 -6 -6 -7 -6 -6 -8 -8 -8 -7 -6 -7 -7 -8 -8 -7 -7 -7 -7 -9 -9 -9
3 3 3 2 3 3 1 -0 0 1 -1 -3 -2 -2 -3 -4 -4 -5 -5 -5 -5 -5 -5 -6 -6 -6 -6 -6 -8 -8 -8 -7 -8 -8 -7 -7 -6 -7 -8 -9 -9 -9 -9 -9
4 3 0 1 1 1 2 2 -0 0 -1 -1 -3 -4 -4 -4 -5 -6 -5 -5 -6 -6 -6 -6 -6 -6 -6 -8 -7 -7 -7 -8 -9 -9 -9 -9 -9 -9 -9 -9 -10 -11 -11 -11
2 1 -0 -0 -0 1 1 1 1 1 -0 -2 -3 -5 -5 -5 -6 -7 -6 -6 -6 -6 -6 -6 -6 -7 -7 -7 -7 -7 -7 -8 -9 -9 -10 -9 -9 -10 -10 -11 -12 -12 -11 -11
0 -1 -0 -0 -0 -1 -1 -1 -1 -1 -1 -3 -4 -5 -5 -6 -7 -7 -7 -6 -6 -6 -6 -6 -7 -7 -8 -8 -8 -8 -8 -9 -9 -9 -9 -9 -10 -10 -10 -12 -13 -12 -13 -12
1 1 1 0 -1 -2 -1 -1 -2 -2 -4 -5 -5 -6 -6 -6 -7 -7 -6 -7 -7 -7 -7 -7 -7 -7 -8 -8 -8 -9 -9 -10 -10 -10 -10 -11 -11 -11 -12 -12 -13 -13 -12 -13
3 1 1 -0 -1 -2 -1 -2 -3 -3 -4 -6 -6 -6 -6 -6 -7 -7 -7 -7 -7 -7 -7 -8 -8 -8 -9 -9 -9 -10 -10 -11 -12 -12 -12 -13 -13 -12 -12 -13 -13 -14 -14 -14
3 1 -2 -2 -2 -2 -2 -4 -5 -5 -5 -5 -5 -6 -6 -7 -7 -7 -7 -7 -8 -8 -8 -8 -8 -8 -9 -10 -11 -12 -12 -13 -14 -14 -14 -14 -14 -14 -14 -14 -14 -13 -14 -14
0 1 1 -2 -3 -2 -3 -4 -4 -5 -5 -5 -5 -6 -6 -7 -7 -7 -8 -8 -8 -9 -9 -9 -9 -9 -10 -11 -12 -13 -13 -14 -14 -15 -15 -15 -15 -15 -15 -15 -15 -15 -15 -15
-1 -0 -1 -2 -3 -3 -4 -4 -4 -5 -5 -5 -6 -6 -7 -7 -7 -7 -8 -8 -9 -9 -10 -9 -9 -10 -11 -12 -13 -13 -14 -14 -14 -15 -15 -15 -15 -16 -16 -16 -16 -16 -16 -16
-2 -3 -3 -3 -3 -4 -4 -4 -4 -4 -5 -6 -6 -6 -7 -7 -7 -7 -8 -8 -9 -10 -10 -10 -10 -11 -12 -12 -13 -13 -13 -14 -14 -14 -15 -15 -16 -16 -16 -16 -16 -16 -16 -16
0 -0 -3 -3 -4 -4 -4 -4 -4 -4 -5 -6 -6 -7 -7 -7 -7 -7 -8 -9 -10 -11 -11 -11 -11 -12 -12 -13 -13 -14 -14 -14 -14 -15 -15 -15 -15 -16 -16 -16 -16 -16 -16 -16
0 -1 -3 -4 -4 -4 -4 -4 -4 -5 -5 -6 -6 -7 -7 -8 -8 -8 -9 -10 -11 -11 -11 -11 -12 -12 -13 -13 -14 -14 -15 -15 -15 -15 -16 -16 -16 -16 -16 -17 -17 -17 -18 -18
-1 -1 -2 -3 -3 -3 -3 -4 -4 -5 -6 -6 -7 -7 -8 -8 -9 -9 -10 -11 -12 -11 -12 -12 -13 -13 -13 -14 -14 -14 -15 -15 -15 -15 -16 -16 -17 -17 -17 -18 -18 -18 -19 -19
-1 -2 -2 -2 -3 -3 -3 -4 -4 -5 -6 -7 -7 -7 -8 -9 -9 -10 -11 -11 -11 -12 -12 -13 -13 -14 -14 -14 -14 -15 -15 -15 -15 -16 -16 -17 -17 -18 -18 -19 -19 -20 -20 -20
-1 -2 -2 -2 -3 -3 -4 -5 -5 -6 -6 -7 -8 -8 -9 -9 -10 -11 -11 -12 -12 -13 -13 -13 -14 -14 -15 -15 -15 -15 -16 -16 -16 -17 -17 -18 -18 -19 -19 -19 -20 -20 -21 -21
-1 -1 -2 -2 -3 -4 -5 -6 -6 -7 -7 -7 -8 -9 -9 -10 -10 -11 -11 -12 -12 -13 -13 -14 -14 -15 -15 -15 -15 -16 -16 -17 -17 -18 -18 -19 -19 -20 -20 -21 -22 -22 -22 -23
-1 -2 -3 -4 -4 -5 -5 -6 -7 -8 -8 -8 -9 -10 -9 -10 -11 -12 -12 -12 -13 -14 -14 -15 -15 -15 -15 -16 -16 -17 -17 -17 -18 -19 -19 -20 -20 -21 -21 -22 -22 -23 -23 -24
-3 -3 -4 -5 -5 -6 -6 -7 -8 -8 -9 -10 -10 -10 -11 -11 -12 -12 -12 -13 -14 -14 -14 -15 -15 -15 -16 -16 -17 -17 -18 -18 -19 -19 -20 -20 -21 -21 -22 -22 -23 -23 -24 -24
-3 -4 -5 -6 -6 -6 -7 -7 -8 -8 -9 -10 -11 -11 -11 -12 -12 -12 -13 -14 -14 -15 -15 -15 -16 -16 -17 -17 -17 -18 -18 -19 -19 -20 -20 -21 -21 -22 -22 -23 -23 -24 -24 -25
-5 -6 -6 -7 -7 -7 -7 -7 -8 -8 -9 -10 -10 -11 -12 -12 -12 -13 -14 -14 -15 -15 -16 -16 -17 -17 -17 -18 -18 -18 -19 -19 -20 -20 -21 -21 -22 -22 -22 -23 -24 -24 -24 -25

GFSNGP_850_temp_138.txt.gz
Temp
4 5 5 5 4 5 5 5 4 5 5 6 2 -1 -2 -2 -3 -3 -4 -5 -5 -5 -5 -5 -4 -4 -4 -4 -4 -3 -2 -2 -3 -4 -4 -3 -2 -3 -3 -2 -2 -4 -5 -5
0 4 4 4 3 4 5 5 5 5 5 3 0 -0 -2 -2 -3 -4 -4 -5 -5 -5 -5 -5 -5 -5 -5 -4 -5 -5 -4 -4 -4 -4 -3 -3 -3 -3 -2 -2 -3 -2 -2 -4
4 4 4 3 1 3 4 4 5 4 5 -1 -2 -2 -3 -3 -3 -3 -4 -5 -5 -5 -6 -6 -6 -6 -6 -5 -5 -5 -5 -5 -5 -5 -5 -5 -5 -4 -5 -4 -4 -5 -3 -1
3 3 2 3 5 5 4 5 5 3 1 0 -0 -2 -1 -2 -3 -4 -4 -5 -5 -6 -6 -6 -6 -6 -6 -6 -6 -6 -6 -6 -6 -6 -6 -5 -5 -5 -5 -5 -4 -4 -2 -1
3 4 4 5 5 4 4 5 4 3 -2 -3 -3 -2 -4 -3 -3 -4 -4 -5 -5 -6 -6 -6 -6 -6 -6 -6 -7 -7 -8 -7 -7 -7 -7 -7 -6 -6 -6 -6 -5 -5 -6 -4
1 3 3 4 4 4 4 4 2 1 -2 -3 -2 -2 -4 -4 -4 -4 -5 -5 -5 -6 -6 -6 -6 -6 -6 -6 -7 -8 -8 -9 -8 -8 -8 -8 -8 -7 -7 -6 -6 -5 -5 -6
2 3 4 4 4 4 4 3 1 1 -2 -3 -2 -1 -2 -4 -4 -4 -5 -5 -5 -6 -5 -5 -6 -7 -6 -6 -7 -8 -8 -8 -8 -8 -9 -9 -9 -8 -8 -8 -6 -6 -7 -8
3 3 4 3 2 3 2 1 1 1 -0 -2 -1 -1 -3 -4 -4 -5 -5 -5 -6 -5 -5 -6 -7 -7 -7 -6 -8 -8 -8 -8 -8 -8 -8 -8 -8 -9 -9 -8 -9 -10 -10 -10
4 3 1 2 1 2 1 1 1 1 -0 -1 -1 -3 -4 -4 -5 -6 -6 -6 -6 -6 -6 -6 -7 -7 -7 -8 -8 -8 -8 -8 -9 -9 -10 -10 -10 -10 -11 -11 -11 -12 -13 -13
3 2 1 1 1 1 1 1 1 1 0 -1 -2 -3 -4 -5 -6 -7 -6 -6 -6 -6 -6 -6 -7 -7 -8 -8 -8 -8 -8 -9 -9 -9 -10 -11 -11 -12 -13 -13 -12 -12 -13 -13
1 1 0 1 1 1 0 1 1 -0 -1 -1 -2 -4 -5 -6 -6 -7 -7 -7 -7 -6 -6 -6 -7 -7 -8 -8 -8 -8 -9 -10 -10 -10 -10 -10 -11 -11 -12 -13 -14 -14 -14 -15
3 3 2 1 1 -0 -0 -0 -1 -1 -3 -4 -4 -5 -6 -6 -6 -7 -7 -7 -7 -7 -7 -7 -7 -7 -8 -8 -8 -8 -9 -9 -10 -10 -11 -11 -11 -11 -12 -12 -13 -13 -14 -14
3 4 1 1 -1 -0 -1 -2 -2 -2 -3 -5 -6 -5 -6 -6 -6 -7 -7 -7 -7 -7 -7 -7 -7 -8 -8 -8 -9 -9 -9 -10 -11 -11 -11 -12 -11 -11 -11 -12 -13 -12 -12 -12
3 2 -2 -1 -2 -2 -2 -3 -3 -4 -5 -4 -5 -6 -6 -6 -7 -7 -7 -7 -7 -8 -8 -8 -7 -8 -8 -9 -9 -9 -10 -10 -10 -11 -11 -12 -13 -14 -14 -14 -13 -13 -14 -15
0 1 1 -0 -2 -3 -2 -4 -5 -5 -5 -5 -5 -5 -6 -6 -6 -7 -7 -7 -8 -8 -8 -8 -8 -8 -9 -9 -10 -10 -11 -12 -12 -13 -13 -13 -14 -14 -15 -15 -15 -15 -15 -15
-1 0 0 -1 -3 -3 -3 -4 -4 -5 -5 -5 -5 -6 -6 -6 -7 -7 -7 -8 -8 -8 -9 -9 -9 -10 -10 -11 -11 -11 -12 -13 -13 -14 -14 -14 -15 -15 -15 -15 -16 -16 -16 -16
-1 -3 -3 -3 -3 -3 -3 -4 -4 -4 -5 -5 -5 -6 -6 -7 -7 -7 -8 -9 -9 -9 -9 -10 -10 -11 -11 -11 -12 -13 -13 -14 -14 -14 -15 -15 -16 -16 -16 -17 -17 -17 -17 -17
2 1 -0 -1 -3 -3 -3 -4 -4 -4 -5 -5 -5 -6 -6 -7 -7 -7 -8 -9 -9 -10 -10 -11 -11 -11 -12 -12 -13 -13 -14 -14 -14 -14 -15 -16 -16 -16 -17 -17 -18 -18 -18 -18
-0 -0 -2 -3 -3 -3 -4 -4 -4 -4 -5 -5 -5 -6 -7 -7 -8 -8 -8 -9 -10 -11 -11 -12 -12 -12 -12 -13 -13 -13 -14 -14 -14 -15 -15 -16 -17 -17 -18 -18 -18 -18 -19 -19
-1 -2 -2 -4 -4 -4 -4 -4 -4 -5 -5 -6 -6 -7 -8 -8 -8 -9 -9 -10 -11 -12 -12 -12 -12 -13 -13 -13 -14 -14 -14 -14 -14 -15 -16 -17 -17 -17 -17 -18 -18 -19 -19 -20
-1 -2 -2 -3 -3 -4 -4 -4 -4 -5 -5 -6 -6 -7 -7 -8 -9 -9 -10 -11 -11 -12 -12 -13 -13 -13 -13 -14 -14 -14 -14 -14 -15 -16 -16 -16 -16 -17 -18 -18 -19 -19 -20 -20
-1 -2 -2 -3 -3 -3 -4 -4 -5 -5 -6 -7 -7 -8 -8 -9 -9 -10 -11 -11 -12 -12 -13 -13 -13 -14 -14 -14 -14 -14 -15 -15 -16 -16 -16 -17 -17 -18 -18 -19 -20 -20 -21 -21
-1 -2 -2 -3 -3 -3 -4 -5 -6 -6 -6 -7 -8 -8 -9 -9 -9 -10 -11 -12 -12 -13 -13 -14 -14 -14 -14 -14 -15 -15 -15 -16 -16 -17 -17 -18 -18 -19 -19 -20 -20 -21 -21 -22
-1 -2 -2 -3 -3 -4 -5 -5 -6 -7 -8 -8 -8 -9 -9 -10 -11 -11 -12 -12 -12 -13 -14 -14 -14 -14 -15 -15 -16 -16 -16 -17 -17 -17 -18 -19 -19 -20 -20 -21 -21 -22 -22 -23
-2 -2 -3 -4 -4 -5 -5 -6 -7 -8 -9 -9 -10 -10 -11 -11 -12 -11 -12 -12 -13 -14 -14 -14 -15 -15 -16 -16 -16 -17 -17 -18 -18 -19 -19 -20 -20 -20 -21 -22 -22 -22 -22 -23
-3 -3 -4 -4 -5 -5 -6 -7 -7 -8 -9 -10 -10 -11 -11 -11 -12 -12 -12 -13 -13 -14 -15 -15 -16 -16 -16 -17 -17 -18 -18 -19 -19 -20 -20 -20 -21 -21 -21 -21 -22 -22 -23 -23
-4 -4 -5 -5 -6 -6 -7 -7 -8 -8 -9 -9 -10 -11 -11 -12 -12 -13 -13 -14 -14 -15 -16 -16 -16 -17 -17 -17 -18 -18 -19 -19 -20 -20 -21 -21 -21 -21 -21 -22 -22 -22 -23 -23

GFSNGP_850_temp_141.txt.gz
Temp
6 7 6 6 6 6 6 6 6 6 6 7 7 5 2 -1 -3 -4 -4 -5 -5 -4 -5 -4 -4 -4 -4 -4 -3 -3 -3 -3 -4 -4 -4 -3 -3 -4 -3 -3 -4 -5 -4 -3
3 5 6 5 4 4 6 6 6 6 6 7 3 1 -1 -2 -3 -3 -4 -5 -5 -5 -5 -4 -5 -5 -5 -4 -4 -3 -3 -4 -4 -4 -3 -3 -3 -3 -3 -4 -3 -4 -7 -7
5 6 5 5 4 4 6 6 6 6 8 4 2 1 -0 -2 -2 -3 -4 -5 -5 -5 -5 -5 -5 -6 -5 -5 -4 -4 -4 -4 -5 -4 -4 -4 -4 -3 -4 -5 -5 -5 -4 -5
5 5 4 6 6 6 6 7 7 7 6 3 2 -1 -2 -2 -2 -4 -5 -5 -5 -5 -6 -6 -6 -6 -6 -5 -5 -5 -5 -5 -5 -6 -5 -5 -5 -5 -5 -7 -7 -6 -5 -6
4 5 6 6 7 6 5 7 8 7 2 -1 -2 -2 -3 -2 -3 -3 -4 -4 -5 -6 -6 -6 -6 -6 -6 -6 -6 -6 -6 -7 -7 -7 -7 -6 -6 -6 -6 -7 -7 -8 -8 -6
3 4 4 6 6 4 5 6 3 3 1 -1 -1 3 1 -3 -3 -4 -4 -5 -5 -6 -6 -7 -7 -7 -7 -7 -7 -7 -8 -8 -8 -7 -8 -8 -8 -8 -8 -7 -7 -7 -7 -7
4 3 5 6 5 4 5 6 2 1 0 -1 1 1 -1 -3 -4 -4 -4 -5 -6 -6 -6 -7 -7 -7 -7 -7 -8 -8 -8 -8 -8 -8 -7 -8 -9 -9 -9 -8 -8 -7 -7 -7
4 3 4 4 4 5 3 2 2 1 -0 -1 -1 -1 -3 -3 -4 -5 -5 -5 -6 -6 -6 -7 -7 -7 -7 -7 -8 -9 -8 -8 -8 -9 -9 -10 -11 -12 -11 -10 -10 -10 -11 -11
5 6 4 4 4 5 5 3 2 2 0 -1 -1 -3 -4 -4 -5 -5 -5 -6 -6 -6 -7 -7 -7 -7 -7 -8 -8 -9 -8 -9 -9 -9 -9 -10 -11 -13 -13 -14 -14 -14 -14 -14
4 5 4 4 3 3 4 2 3 2 1 -1 -1 -3 -4 -5 -6 -6 -6 -6 -6 -7 -7 -7 -8 -8 -8 -8 -8 -8 -9 -9 -10 -10 -10 -10 -12 -14 -14 -14 -14 -14 -14 -15
3 3 3 5 5 2 1 0 1 1 0 -1 -2 -4 -5 -6 -6 -6 -6 -6 -7 -7 -7 -7 -8 -8 -8 -8 -8 -8 -9 -9 -9 -10 -11 -11 -12 -13 -14 -15 -15 -15 -15 -15
4 5 5 5 4 2 0 0 -0 0 -1 -2 -2 -3 -5 -6 -6 -6 -6 -7 -7 -7 -7 -7 -8 -8 -8 -9 -9 -9 -9 -10 -10 -11 -11 -11 -12 -13 -13 -14 -14 -14 -14 -15
4 4 4 3 2 0 -0 -1 -1 -1 -2 -3 -4 -4 -5 -6 -6 -6 -7 -7 -7 -7 -7 -8 -8 -8 -9 -9 -9 -9 -9 -10 -10 -11 -11 -11 -12 -12 -12 -13 -13 -14 -14 -14
3 3 2 2 1 -1 -1 -1 -2 -3 -4 -4 -4 -5 -5 -6 -6 -6 -7 -7 -7 -7 -7 -8 -8 -9 -9 -9 -10 -10 -10 -11 -11 -12 -12 -13 -13 -13 -13 -13 -13 -13 -13 -14
3 2 2 2 -0 -1 -2 -2 -3 -4 -4 -5 -5 -5 -6 -6 -6 -6 -7 -7 -8 -8 -8 -8 -8 -9 -10 -10 -11 -11 -11 -11 -11 -12 -12 -13 -13 -13 -14 -14 -14 -14 -14 -14
1 -0 0 0 -1 -2 -3 -3 -3 -5 -5 -5 -5 -6 -6 -6 -6 -7 -7 -7 -7 -8 -8 -8 -9 -9 -10 -10 -11 -11 -11 -12 -12 -12 -12 -12 -13 -13 -14 -14 -15 -16 -16 -16
-0 -3 -2 -3 -2 -3 -3 -2 -3 -3 -4 -5 -5 -5 -6 -6 -7 -7 -8 -8 -8 -9 -9 -9 -10 -10 -11 -11 -11 -12 -12 -12 -13 -13 -13 -13 -14 -15 -15 -15 -16 -16 -17 -17
3 3 2 1 -2 -3 -4 -3 -4 -3 -4 -4 -5 -5 -6 -6 -6 -7 -8 -8 -9 -10 -10 -10 -11 -11 -11 -12 -12 -12 -13 -13 -13 -13 -14 -15 -15 -16 -16 -17 -17 -17 -18 -18
1 1 0 -1 -3 -3 -2 -3 -4 -4 -4 -5 -5 -6 -6 -7 -7 -8 -9 -9 -10 -10 -11 -11 -11 -12 -12 -12 -12 -13 -13 -14 -14 -14 -15 -16 -16 -16 -16 -17 -18 -18 -19 -19
-0 -1 -1 -2 -3 -3 -4 -4 -4 -4 -5 -5 -5 -6 -7 -8 -8 -8 -9 -10 -11 -11 -11 -12 -12 -12 -12 -13 -13 -13 -14 -14 -15 -15 -16 -16 -16 -17 -17 -18 -19 -19 -19 -20
-1 -1 -2 -3 -4 -4 -4 -4 -4 -4 -5 -5 -6 -6 -7 -8 -8 -9 -10 -10 -11 -12 -12 -12 -12 -13 -13 -13 -13 -14 -14 -15 -15 -16 -16 -17 -17 -18 -19 -19 -19 -19 -20 -20
-1 -2 -3 -3 -4 -4 -4 -4 -4 -5 -5 -6 -7 -7 -8 -8 -9 -10 -10 -11 -11 -12 -12 -13 -13 -13 -14 -14 -14 -15 -15 -16 -16 -17 -17 -17 -18 -19 -19 -19 -19 -20 -20 -21
-2 -2 -2 -3 -3 -3 -4 -5 -5 -5 -6 -6 -7 -7 -8 -8 -9 -9 -10 -11 -12 -12 -13 -13 -13 -14 -14 -14 -15 -15 -16 -17 -17 -17 -18 -18 -19 -19 -19 -20 -20 -20 -21 -21
-2 -3 -3 -3 -3 -4 -4 -5 -6 -6 -7 -7 -8 -8 -8 -9 -10 -11 -11 -12 -12 -13 -13 -13 -14 -14 -15 -15 -16 -16 -17 -17 -18 -18 -19 -19 -19 -19 -20 -20 -21 -21 -21 -22
-2 -2 -3 -3 -4 -4 -5 -5 -6 -7 -8 -8 -9 -9 -10 -10 -10 -11 -11 -12 -12 -13 -13 -14 -14 -15 -15 -16 -16 -17 -18 -18 -18 -19 -19 -19 -20 -20 -20 -21 -21 -21 -22 -22
-2 -3 -3 -4 -4 -5 -5 -6 -6 -7 -8 -9 -9 -10 -10 -11 -11 -11 -12 -12 -13 -13 -14 -14 -15 -16 -16 -17 -17 -18 -18 -19 -19 -19 -20 -20 -20 -21 -21 -21 -21 -22 -22 -23
-3 -4 -4 -5 -5 -6 -6 -6 -7 -7 -8 -9 -9 -10 -11 -11 -12 -12 -12 -13 -13 -14 -14 -15 -16 -16 -17 -17 -18 -18 -19 -19 -20 -20 -20 -21 -21 -21 -21 -22 -22 -22 -23 -23

GFSNGP_850_temp_144.txt.gz
Temp
9 10 10 9 9 9 9 9 8 8 9 10 11 11 10 8 -0 -2 -4 -4 -4 -4 -4 -4 -5 -5 -6 -6 -6 -6 -7 -7 -6 -5 -4 -4 -5 -5 -4 -3 -3 -5 -5 -4
5 8 9 8 7 8 8 8 8 9 9 11 10 6 5 3 0 -1 -2 -2 -4 -5 -5 -5 -6 -6 -6 -6 -6 -7 -7 -7 -8 -8 -8 -6 -6 -7 -5 -4 -3 -3 -5 -5
7 9 8 7 7 6 9 10 9 9 10 12 10 8 5 2 1 0 -1 -3 -4 -5 -6 -6 -6 -6 -7 -7 -7 -7 -8 -8 -8 -8 -9 -9 -9 -10 -10 -7 -4 -5 -5 -6
7 8 6 9 10 10 9 10 11 11 11 11 9 4 3 2 1 0 -2 -3 -5 -4 -5 -6 -7 -6 -7 -7 -8 -6 -7 -8 -8 -9 -9 -9 -9 -10 -10 -10 -8 -7 -7 -6
6 8 9 10 10 10 9 9 11 9 10 5 3 2 0 0 0 -1 -2 -4 -5 -5 -5 -5 -6 -7 -6 -5 -7 -6 -6 -6 -7 -7 -8 -10 -10 -11 -11 -11 -11 -11 -9 -8
7 5 6 10 10 8 9 8 7 7 7 5 4 7 6 -1 -1 -2 -4 -5 -5 -6 -7 -7 -8 -8 -7 -6 -6 -6 -7 -7 -7 -8 -7 -8 -11 -11 -12 -11 -12 -12 -11 -9
6 6 8 10 8 7 6 7 6 6 5 5 5 3 0 -1 -3 -4 -4 -5 -6 -7 -6 -7 -8 -8 -8 -9 -7 -8 -9 -9 -8 -8 -10 -10 -10 -12 -12 -12 -12 -12 -12 -13
7 6 5 8 6 7 7 5 4 5 4 3 2 -1 -1 -3 -5 -5 -5 -6 -7 -7 -7 -8 -8 -8 -8 -9 -9 -10 -10 -10 -10 -10 -11 -11 -11 -11 -12 -12 -12 -12 -12 -11
8 9 9 7 8 7 6 6 6 3 3 2 0 -2 -4 -6 -6 -5 -6 -6 -7 -7 -8 -8 -8 -8 -9 -9 -9 -10 -10 -10 -11 -11 -11 -11 -11 -12 -11 -12 -12 -12 -12 -12
7 7 9 8 8 5 4 3 3 2 2 1 -1 -3 -5 -6 -6 -6 -6 -6 -7 -8 -8 -9 -9 -8 -9 -9 -10 -10 -10 -10 -11 -11 -12 -12 -12 -12 -13 -13 -12 -12 -13 -13
6 7 7 7 6 5 4 2 1 0 0 -1 -2 -3 -4 -5 -6 -6 -6 -7 -7 -7 -8 -9 -9 -9 -8 -10 -10 -10 -11 -11 -11 -12 -12 -12 -13 -13 -14 -14 -14 -14 -14 -14
6 7 7 6 5 4 4 1 0 -1 -1 -2 -2 -3 -4 -5 -6 -6 -7 -7 -8 -8 -9 -9 -9 -9 -8 -9 -10 -11 -11 -11 -11 -12 -12 -13 -13 -13 -13 -13 -14 -14 -15 -16
6 6 5 4 4 3 2 0 -1 -1 -2 -2 -3 -4 -5 -6 -6 -6 -7 -8 -8 -8 -9 -9 -8 -8 -8 -8 -9 -10 -11 -11 -12 -12 -13 -13 -14 -14 -13 -14 -14 -14 -14 -14
6 5 3 2 3 1 -0 -1 -1 -2 -3 -3 -4 -5 -6 -6 -7 -7 -7 -8 -8 -8 -8 -8 -8 -8 -8 -9 -9 -10 -10 -11 -11 -12 -12 -14 -14 -14 -14 -14 -14 -14 -15 -15
6 4 3 2 1 -0 -1 -2 -3 -3 -4 -4 -5 -5 -6 -7 -7 -8 -8 -8 -7 -7 -8 -8 -8 -9 -9 -10 -10 -11 -12 -12 -12 -13 -13 -13 -15 -15 -15 -15 -15 -15 -16 -16
4 2 1 1 0 -1 -2 -3 -3 -4 -5 -5 -5 -6 -6 -7 -8 -7 -8 -8 -7 -8 -8 -8 -9 -9 -10 -10 -11 -12 -13 -12 -12 -13 -14 -15 -15 -15 -16 -16 -16 -16 -17 -18
2 0 0 0 -0 -2 -2 -3 -3 -4 -5 -6 -6 -7 -8 -8 -7 -7 -7 -8 -8 -8 -9 -9 -10 -10 -10 -11 -11 -12 -13 -13 -12 -13 -14 -15 -16 -16 -17 -17 -17 -18 -18 -19
3 2 3 1 -1 -2 -3 -3 -4 -5 -5 -5 -5 -5 -6 -6 -6 -7 -7 -8 -8 -9 -10 -10 -10 -11 -11 -11 -12 -12 -12 -12 -13 -13 -15 -14 -15 -15 -16 -18 -19 -19 -20 -20
1 2 2 0 -1 -2 -3 -4 -5 -4 -4 -4 -5 -5 -6 -6 -6 -7 -8 -8 -9 -10 -10 -10 -11 -11 -11 -12 -12 -12 -13 -13 -13 -14 -15 -15 -15 -16 -17 -18 -19 -20 -20 -20
-0 1 0 -1 -3 -3 -3 -3 -3 -3 -4 -4 -5 -6 -6 -7 -7 -8 -8 -9 -11 -12 -10 -11 -12 -12 -12 -12 -12 -13 -13 -14 -14 -15 -15 -16 -16 -17 -17 -18 -18 -19 -19 -20
0 0 -0 -1 -2 -3 -3 -3 -3 -4 -4 -5 -5 -6 -6 -7 -8 -9 -9 -11 -10 -11 -11 -12 -12 -12 -13 -13 -13 -13 -14 -14 -15 -15 -16 -16 -17 -18 -19 -19 -20 -20 -21 -22
-0 -1 -2 -3 -3 -4 -4 -4 -4 -4 -4 -5 -6 -6 -7 -7 -8 -10 -10 -11 -11 -11 -12 -12 -13 -13 -13 -14 -14 -14 -15 -15 -16 -16 -17 -17 -18 -19 -20 -20 -20 -21 -21 -21
-2 -2 -3 -4 -4 -4 -4 -4 -4 -5 -5 -5 -6 -7 -8 -8 -9 -10 -11 -11 -11 -12 -12 -13 -13 -13 -14 -14 -15 -15 -15 -16 -16 -17 -18 -18 -19 -19 -19 -20 -20 -20 -21 -21
-2 -3 -3 -3 -3 -4 -4 -4 -5 -5 -6 -6 -7 -8 -8 -9 -10 -12 -12 -11 -11 -12 -13 -13 -13 -14 -14 -15 -15 -16 -16 -17 -17 -18 -18 -19 -19 -20 -20 -20 -20 -21 -21 -21
-2 -2 -3 -3 -4 -4 -4 -5 -5 -6 -7 -8 -8 -9 -9 -10 -11 -11 -11 -11 -12 -13 -13 -13 -14 -14 -15 -15 -16 -16 -17 -18 -18 -19 -19 -20 -20 -20 -20 -21 -21 -21 -21 -22
-2 -3 -3 -4 -4 -4 -5 -5 -6 -7 -8 -8 -9 -10 -11 -10 -10 -11 -11 -12 -12 -13 -13 -14 -14 -15 -15 -16 -17 -17 -18 -18 -19 -19 -20 -20 -21 -21 -21 -21 -21 -21 -22 -22
-3 -3 -3 -4 -4 -5 -6 -6 -7 -7 -8 -10 -11 -11 -10 -11 -11 -11 -12 -12 -13 -13 -14 -14 -15 -16 -16 -17 -17 -18 -19 -19 -20 -20 -20 -21 -21 -21 -21 -21 -22 -22 -22 -22

GFSNGP_850_temp_147.txt.gz
Temp
12 12 12 12 12 12 11 11 10 10 11 12 13 13 12 10 8 1 -2 -2 -3 -4 -4 -3 -4 -4 -4 -4 -4 -4 -5 -5 -6 -6 -7 -6 -7 -7 -6 -5 -6 -7 -7 -4
7 10 11 10 10 10 10 10 10 11 11 13 13 11 11 8 6 3 1 -0 -2 -3 -4 -4 -4 -3 -4 -4 -5 -5 -5 -6 -6 -6 -6 -7 -8 -8 -9 -7 -6 -6 -7 -6
9 11 11 10 8 9 11 12 12 11 13 13 13 12 10 8 5 3 1 0 -1 -2 -3 -4 -4 -5 -5 -5 -6 -6 -6 -6 -7 -7 -7 -7 -7 -8 -8 -9 -9 -8 -8 -6
9 9 7 11 12 12 12 12 13 13 11 11 9 9 7 6 5 3 2 0 -3 -4 -4 -5 -5 -5 -6 -6 -6 -7 -7 -7 -8 -8 -8 -8 -8 -8 -9 -9 -10 -10 -10 -10
8 9 11 12 13 12 11 11 12 11 11 10 7 6 5 4 4 3 1 -1 -3 -4 -4 -5 -6 -6 -6 -7 -7 -7 -6 -5 -9 -9 -9 -9 -9 -9 -9 -10 -10 -11 -11 -8
8 7 8 11 12 12 11 9 10 10 9 8 8 8 3 1 2 1 -0 -1 -3 -4 -5 -5 -5 -6 -7 -6 -6 -7 -7 -7 -6 -9 -9 -10 -10 -10 -10 -10 -10 -10 -11 -11
7 7 10 12 11 10 8 8 8 8 8 8 7 5 3 2 0 -1 -1 -2 -3 -3 -3 -4 -5 -5 -6 -7 -6 -7 -8 -9 -8 -9 -10 -10 -10 -10 -11 -10 -11 -10 -10 -11
8 7 7 12 10 9 10 9 9 8 7 5 4 1 0 0 -1 -1 -2 -3 -3 -3 -4 -5 -5 -5 -5 -6 -7 -7 -8 -8 -9 -9 -10 -10 -10 -10 -10 -10 -10 -10 -10 -10
10 10 10 9 10 9 9 9 8 7 6 4 4 1 -0 -2 -3 -2 -2 -3 -4 -4 -5 -5 -5 -5 -5 -7 -7 -8 -8 -8 -9 -9 -10 -10 -10 -10 -11 -10 -11 -11 -11 -11
9 9 10 10 9 9 9 7 6 5 5 4 2 -0 -2 -3 -3 -2 -2 -3 -4 -4 -5 -6 -6 -7 -7 -8 -8 -8 -8 -8 -9 -10 -9 -10 -10 -11 -12 -12 -12 -12 -12 -12
8 9 9 9 9 8 7 7 4 4 3 3 2 0 -2 -3 -2 -3 -3 -4 -4 -4 -5 -6 -7 -7 -8 -8 -8 -8 -8 -9 -9 -10 -10 -10 -11 -11 -12 -12 -12 -14 -14 -14
7 9 8 8 7 6 6 5 4 3 2 2 1 0 -1 -2 -3 -3 -4 -4 -5 -5 -6 -6 -7 -8 -8 -9 -9 -9 -9 -10 -9 -10 -11 -11 -11 -11 -12 -12 -13 -13 -13 -13
8 8 8 7 6 5 4 3 2 2 2 1 1 0 -1 -2 -3 -4 -4 -5 -5 -5 -6 -7 -8 -9 -10 -10 -10 -10 -10 -11 -11 -11 -11 -12 -12 -12 -12 -12 -12 -13 -14 -14
8 8 8 7 7 5 3 2 1 1 1 1 0 -1 -2 -4 -4 -4 -5 -5 -5 -6 -7 -8 -9 -7 -7 -8 -8 -8 -9 -10 -12 -12 -12 -13 -13 -13 -13 -13 -13 -13 -13 -15
7 7 7 7 6 5 2 1 0 0 -0 -0 -1 -2 -4 -4 -5 -5 -5 -6 -7 -8 -9 -9 -8 -8 -8 -9 -9 -9 -12 -12 -12 -13 -13 -13 -13 -13 -13 -13 -13 -14 -14 -15
8 8 7 6 4 3 2 1 0 -0 -1 -2 -3 -4 -4 -4 -5 -6 -6 -7 -8 -9 -10 -8 -8 -8 -9 -9 -9 -10 -12 -11 -11 -13 -14 -14 -14 -14 -14 -14 -14 -15 -15 -17
7 8 5 4 3 3 1 0 -0 -1 -2 -3 -4 -5 -5 -6 -7 -8 -8 -8 -9 -8 -7 -8 -8 -9 -9 -9 -10 -13 -13 -13 -12 -14 -14 -15 -15 -15 -15 -15 -15 -16 -16 -18
7 7 5 4 3 2 0 -1 -1 -2 -4 -5 -5 -5 -6 -6 -7 -7 -7 -8 -8 -8 -9 -9 -9 -9 -10 -10 -11 -13 -13 -14 -14 -14 -15 -16 -14 -16 -16 -17 -17 -17 -18 -18
7 6 4 3 2 1 -1 -2 -3 -4 -5 -5 -5 -5 -6 -6 -7 -7 -7 -8 -8 -9 -10 -9 -10 -10 -11 -11 -12 -12 -13 -13 -14 -15 -15 -15 -17 -17 -17 -18 -19 -19 -19 -19
5 3 2 1 0 -1 -2 -3 -4 -4 -5 -5 -5 -6 -7 -7 -7 -7 -7 -8 -9 -11 -9 -9 -11 -13 -11 -12 -12 -13 -13 -13 -14 -16 -15 -17 -18 -18 -19 -19 -20 -20 -20 -21
1 0 -0 -1 -1 -3 -3 -3 -4 -4 -4 -5 -5 -5 -6 -6 -7 -8 -9 -10 -11 -10 -11 -10 -13 -12 -12 -12 -13 -13 -13 -14 -15 -16 -17 -18 -19 -19 -20 -20 -21 -21 -21 -22
-1 -1 -1 -2 -3 -4 -3 -4 -4 -4 -4 -5 -6 -6 -6 -7 -8 -9 -9 -10 -11 -11 -11 -13 -14 -13 -12 -13 -13 -14 -14 -14 -15 -16 -17 -18 -19 -20 -21 -21 -22 -22 -23 -23
-2 -2 -3 -3 -3 -3 -4 -4 -4 -4 -4 -5 -5 -6 -7 -7 -8 -10 -11 -11 -12 -12 -13 -14 -12 -13 -13 -14 -14 -14 -14 -15 -16 -17 -18 -18 -19 -20 -21 -22 -20 -21 -22 -23
-2 -3 -3 -3 -4 -4 -4 -4 -4 -5 -5 -5 -6 -7 -8 -9 -10 -10 -10 -12 -13 -13 -13 -12 -13 -13 -14 -14 -14 -14 -15 -16 -17 -18 -19 -18 -20 -20 -20 -20 -20 -21 -21 -21
-2 -3 -3 -4 -4 -5 -4 -5 -5 -5 -6 -6 -7 -8 -9 -10 -10 -10 -12 -12 -12 -12 -12 -13 -13 -14 -14 -14 -15 -15 -16 -17 -17 -18 -18 -19 -19 -19 -20 -20 -20 -21 -21 -21
-3 -3 -4 -5 -5 -5 -5 -5 -7 -7 -9 -9 -9 -10 -10 -11 -11 -11 -11 -11 -12 -12 -12 -13 -13 -14 -14 -15 -15 -16 -17 -18 -18 -18 -19 -19 -20 -20 -20 -21 -21 -21 -21 -22
-4 -3 -4 -5 -6 -6 -6 -7 -8 -8 -9 -9 -10 -10 -11 -12 -12 -11 -11 -12 -12 -13 -13 -13 -14 -14 -15 -16 -16 -17 -17 -18 -18 -19 -19 -20 -20 -21 -21 -21 -21 -21 -22 -22

GFSNGP_850_temp_153.txt.gz
Temp
10 10 11 11 10 10 10 9 8 5 9 8 9 8 7 7 5 2 1 -0 -1 -1 -1 -1 -1 -2 -3 -3 -4 -4 -5 -5 -6 -6 -7 -7 -8 -8 -7 -7 -6 -5 -5 -5
5 9 10 9 7 8 9 9 9 9 8 10 9 9 7 6 4 1 0 0 -0 -2 -2 -2 -2 -3 -3 -4 -4 -5 -5 -6 -6 -6 -7 -8 -8 -9 -8 -7 -7 -6 -6 -6
6 9 9 7 5 7 10 10 10 8 9 8 7 7 6 7 5 4 3 1 -0 -1 -2 -3 -3 -3 -4 -4 -5 -5 -5 -6 -7 -7 -7 -7 -8 -9 -8 -8 -8 -7 -7 -7
6 7 5 7 11 11 11 11 11 11 9 7 8 6 6 6 7 5 3 2 0 -1 -2 -3 -3 -4 -4 -5 -4 -5 -5 -6 -7 -7 -7 -8 -8 -9 -9 -9 -9 -8 -8 -8
5 5 7 8 10 10 10 9 11 8 8 8 8 5 5 5 5 5 4 2 1 -1 -2 -3 -4 -4 -5 -5 -4 -5 -5 -6 -6 -6 -7 -7 -8 -9 -9 -9 -10 -10 -9 -9
4 5 5 6 11 11 11 6 9 8 8 7 7 3 -0 4 4 3 3 1 -0 -1 -2 -3 -4 -4 -5 -5 -5 -5 -6 -6 -7 -7 -7 -8 -8 -9 -9 -10 -10 -10 -10 -10
4 4 5 9 11 11 6 6 9 9 8 7 4 5 5 4 3 2 2 0 -1 -2 -3 -3 -5 -5 -5 -5 -6 -7 -7 -7 -7 -8 -9 -9 -9 -9 -10 -10 -10 -11 -11 -10
4 4 4 10 10 7 7 9 9 9 8 7 6 5 4 3 2 1 0 -1 -2 -2 -3 -4 -4 -5 -5 -6 -6 -7 -7 -8 -8 -8 -9 -9 -8 -9 -9 -9 -10 -10 -10 -10
6 4 7 9 8 9 9 9 9 8 7 6 6 5 3 2 2 1 -0 -1 -2 -3 -3 -4 -4 -4 -5 -6 -7 -7 -7 -8 -8 -8 -9 -8 -8 -9 -9 -9 -10 -10 -10 -10
5 7 7 8 10 10 9 9 8 7 7 6 5 4 3 2 1 0 -0 -1 -2 -2 -3 -4 -4 -4 -4 -6 -7 -7 -7 -8 -8 -8 -9 -9 -9 -9 -10 -10 -10 -11 -11 -11
5 7 8 9 9 8 8 7 7 7 6 6 5 4 3 2 0 -0 -1 -2 -2 -3 -4 -4 -5 -5 -5 -6 -7 -7 -7 -8 -8 -9 -9 -10 -10 -10 -11 -11 -11 -12 -12 -13
2 7 7 7 8 8 8 7 7 7 6 5 5 4 2 1 -0 -1 -1 -2 -2 -3 -4 -5 -5 -6 -6 -7 -7 -7 -7 -8 -8 -9 -10 -10 -10 -11 -11 -12 -12 -12 -13 -13
6 7 8 8 8 8 8 8 7 6 5 5 4 3 2 1 -1 -1 -1 -2 -3 -4 -4 -5 -6 -7 -7 -7 -7 -8 -8 -8 -8 -9 -9 -10 -11 -12 -12 -12 -12 -13 -14 -14
7 6 6 7 7 8 8 7 6 6 5 4 3 2 1 0 -1 -1 -2 -3 -3 -4 -5 -5 -6 -6 -7 -7 -8 -8 -8 -8 -8 -8 -9 -10 -11 -12 -12 -13 -13 -14 -14 -14
6 6 6 7 7 7 7 6 6 5 3 3 2 2 1 -0 -1 -2 -2 -3 -4 -4 -5 -5 -6 -7 -7 -7 -8 -8 -8 -8 -8 -8 -9 -10 -11 -13 -13 -13 -14 -14 -15 -15
6 7 7 7 7 7 7 6 5 4 2 2 2 1 0 -1 -2 -2 -3 -4 -4 -5 -5 -6 -6 -7 -7 -7 -8 -8 -9 -9 -9 -10 -10 -11 -12 -13 -13 -14 -14 -15 -15 -15
6 6 7 7 7 7 7 6 5 4 2 1 1 0 -1 -2 -3 -3 -4 -4 -4 -5 -5 -6 -7 -7 -7 -8 -9 -9 -9 -9 -10 -10 -11 -11 -12 -13 -14 -14 -15 -16 -16 -17
6 6 6 7 7 6 5 5 4 2 2 1 0 -1 -1 -2 -3 -4 -5 -5 -5 -6 -6 -7 -7 -7 -8 -9 -10 -10 -10 -10 -11 -11 -11 -12 -13 -14 -14 -15 -16 -16 -17 -18
5 5 6 7 7 7 5 4 3 2 1 0 -1 -1 -2 -3 -4 -4 -5 -5 -6 -6 -7 -7 -8 -8 -9 -10 -11 -11 -11 -11 -12 -12 -13 -13 -14 -15 -15 -16 -17 -17 -18 -19
5 5 6 7 6 6 4 3 2 1 0 -1 -2 -2 -3 -4 -4 -5 -5 -6 -6 -6 -7 -8 -8 -9 -9 -10 -11 -11 -11 -12 -12 -12 -13 -14 -15 -15 -16 -16 -17 -18 -19 -19
3 3 5 5 4 4 3 2 1 0 -1 -2 -3 -3 -4 -4 -5 -6 -7 -7 -8 -8 -8 -9 -9 -9 -10 -11 -11 -11 -11 -12 -13 -13 -13 -14 -15 -16 -17 -18 -18 -19 -19 -19
1 2 2 2 2 1 0 -0 -1 -2 -2 -3 -4 -4 -5 -5 -6 -7 -7 -7 -7 -8 -9 -10 -10 -10 -11 -12 -12 -12 -12 -12 -13 -13 -14 -15 -16 -16 -17 -18 -18 -19 -19 -19
-0 -0 -0 -0 -0 -1 -2 -2 -2 -3 -4 -4 -5 -5 -5 -5 -6 -7 -8 -8 -9 -9 -10 -11 -11 -11 -12 -12 -12 -12 -13 -13 -14 -14 -15 -16 -16 -17 -17 -18 -18 -18 -19 -19
-1 -2 -2 -2 -3 -3 -3 -4 -4 -4 -4 -4 -5 -5 -5 -6 -7 -8 -9 -8 -9 -9 -10 -11 -12 -13 -13 -13 -13 -13 -13 -13 -14 -15 -15 -17 -17 -17 -17 -18 -18 -19 -19 -20
-2 -3 -3 -4 -5 -5 -4 -4 -4 -5 -5 -5 -6 -6 -6 -7 -7 -8 -9 -9 -10 -10 -11 -12 -13 -13 -13 -13 -13 -13 -13 -14 -15 -16 -16 -17 -17 -18 -18 -18 -19 -20 -20 -20
-4 -3 -3 -4 -4 -4 -4 -4 -4 -5 -5 -5 -6 -7 -8 -8 -9 -9 -9 -9 -10 -11 -12 -12 -13 -13 -13 -13 -13 -13 -14 -15 -16 -17 -17 -18 -18 -19 -18 -19 -19 -20 -20 -20
-4 -4 -5 -5 -5 -4 -4 -4 -4 -5 -5 -6 -6 -8 -9 -9 -9 -9 -9 -10 -10 -11 -12 -13 -13 -13 -13 -13 -14 -14 -15 -15 -16 -17 -17 -18 -18 -19 -19 -20 -20 -20 -21 -21

GFSNGP_850_temp_159.txt.gz
Temp
7 9 10 10 9 9 8 8 8 6 7 8 9 7 7 8 5 4 3 3 3 2 1 0 -0 -1 -2 -3 -3 -3 -4 -5 -5 -6 -6 -7 -7 -7 -7 -7 -6 -6 -6 -5
6 8 8 8 6 7 8 8 8 8 7 8 8 7 4 5 5 5 4 5 2 1 -0 -0 -1 -1 -2 -3 -3 -4 -5 -5 -5 -6 -6 -7 -7 -8 -8 -8 -7 -6 -6 -6
5 7 8 6 2 6 8 8 8 7 8 5 5 5 5 5 6 7 7 6 5 3 1 -1 -1 -2 -2 -3 -3 -4 -5 -5 -5 -6 -7 -7 -8 -8 -8 -8 -8 -7 -7 -8
5 5 5 6 7 9 9 10 9 9 6 6 6 7 7 7 8 7 7 6 4 2 1 -1 -2 -3 -3 -3 -4 -4 -5 -5 -6 -6 -7 -8 -8 -8 -8 -9 -8 -8 -8 -8
4 6 7 7 8 8 8 8 8 8 6 6 6 6 5 7 7 7 6 6 4 2 1 -1 -2 -3 -3 -4 -4 -5 -5 -5 -6 -6 -7 -7 -8 -8 -8 -9 -8 -8 -9 -9
4 5 4 6 9 10 8 6 8 7 5 4 5 3 1 7 7 6 6 5 4 2 -0 -1 -2 -3 -3 -4 -4 -4 -5 -5 -6 -6 -7 -7 -8 -8 -9 -9 -9 -9 -9 -9
4 4 5 6 8 10 6 5 6 7 6 4 3 5 8 7 6 5 4 4 2 1 0 -1 -2 -3 -3 -4 -4 -5 -5 -6 -6 -7 -7 -8 -9 -9 -9 -9 -10 -10 -10 -10
3 4 3 7 8 6 6 7 8 7 7 6 7 7 7 6 5 5 4 2 1 1 -1 -2 -2 -3 -4 -4 -5 -5 -6 -6 -7 -7 -8 -8 -9 -9 -9 -10 -10 -10 -10 -10
4 3 5 8 8 9 8 7 7 8 8 8 7 7 6 6 5 4 3 2 1 -0 -2 -3 -3 -4 -4 -4 -5 -6 -6 -7 -7 -8 -8 -9 -9 -9 -9 -10 -10 -10 -10 -10
4 5 5 8 8 9 9 9 8 8 8 8 8 7 6 5 4 3 2 2 1 -1 -2 -3 -3 -4 -4 -4 -5 -6 -6 -7 -8 -8 -9 -9 -9 -9 -10 -10 -10 -11 -11 -11
3 5 6 7 7 8 8 8 8 8 8 8 7 7 6 5 4 3 2 1 1 -0 -1 -2 -3 -4 -5 -5 -5 -6 -7 -7 -8 -8 -9 -9 -9 -10 -10 -11 -11 -11 -12 -12
2 5 6 6 7 7 7 7 7 7 7 7 7 7 6 5 4 3 2 1 0 -1 -1 -2 -3 -4 -5 -5 -5 -6 -7 -7 -8 -8 -9 -9 -10 -10 -11 -11 -12 -12 -12 -13
5 7 7 7 7 6 6 7 7 7 7 7 7 6 5 5 3 2 1 1 -0 -0 -1 -2 -3 -4 -5 -5 -6 -6 -6 -7 -7 -8 -9 -9 -9 -10 -11 -12 -13 -13 -13 -14
5 5 5 6 6 6 6 6 7 6 7 6 6 6 5 4 3 2 1 1 -0 -1 -2 -3 -3 -4 -5 -5 -6 -6 -7 -7 -8 -8 -9 -9 -10 -11 -12 -12 -13 -13 -14 -14
5 5 5 5 5 5 5 6 6 6 6 7 6 6 5 4 3 2 1 0 -1 -1 -2 -3 -3 -4 -5 -6 -6 -7 -7 -8 -8 -8 -9 -10 -10 -11 -12 -13 -13 -14 -14 -14
5 5 5 5 5 5 5 6 5 6 6 6 6 5 4 4 3 2 0 -1 -1 -2 -2 -3 -4 -4 -5 -6 -7 -7 -8 -8 -9 -9 -9 -10 -11 -12 -12 -13 -13 -14 -14 -15
4 4 4 5 5 5 5 5 6 6 6 5 6 5 4 2 2 1 -0 -1 -1 -2 -2 -3 -4 -5 -6 -6 -7 -7 -8 -9 -9 -9 -10 -10 -11 -12 -13 -13 -14 -14 -15 -15
4 4 3 3 3 4 4 5 5 6 6 6 5 4 3 2 2 0 -1 -1 -2 -3 -3 -4 -5 -5 -6 -7 -7 -8 -8 -9 -9 -10 -10 -11 -12 -12 -13 -14 -14 -15 -15 -16
3 3 4 4 4 4 4 5 5 5 6 6 4 3 3 2 1 0 -2 -4 -3 -3 -4 -5 -5 -6 -7 -7 -8 -8 -9 -9 -10 -10 -11 -12 -12 -13 -13 -14 -15 -16 -16 -17
4 4 5 5 4 4 5 5 5 4 5 5 3 3 2 1 -0 -2 -3 -4 -3 -4 -4 -5 -6 -7 -7 -8 -8 -9 -9 -10 -11 -11 -12 -12 -13 -13 -14 -15 -15 -16 -17 -18
4 4 3 3 3 4 5 5 5 4 4 3 3 2 1 -0 -2 -3 -4 -4 -4 -5 -5 -6 -6 -7 -7 -8 -9 -9 -10 -11 -11 -12 -12 -13 -13 -14 -14 -15 -16 -17 -17 -18
1 1 1 2 2 2 3 2 2 2 2 1 -0 -1 -2 -2 -3 -5 -4 -5 -5 -5 -6 -7 -7 -8 -8 -8 -9 -10 -11 -11 -12 -12 -13 -13 -14 -14 -15 -16 -17 -17 -18 -18
-2 -1 -0 0 1 1 1 0 0 1 1 -0 -1 -2 -2 -3 -3 -5 -5 -6 -6 -7 -7 -8 -9 -8 -9 -10 -10 -11 -12 -12 -12 -12 -13 -14 -14 -15 -16 -16 -17 -18 -18 -18
-3 -3 -2 -1 -0 -1 -1 -1 -1 -2 -2 -2 -2 -3 -3 -4 -5 -5 -6 -6 -7 -7 -8 -9 -9 -9 -10 -11 -11 -12 -12 -12 -12 -13 -13 -14 -15 -16 -16 -17 -18 -18 -19 -19
-4 -4 -3 -3 -2 -2 -2 -2 -3 -3 -3 -3 -4 -4 -5 -5 -4 -5 -6 -7 -7 -8 -9 -9 -9 -10 -11 -12 -12 -12 -13 -13 -13 -13 -14 -15 -16 -16 -17 -18 -18 -19 -19 -19
-4 -4 -5 -4 -4 -4 -4 -4 -4 -5 -5 -5 -5 -5 -6 -6 -6 -6 -7 -7 -8 -9 -9 -9 -10 -11 -12 -12 -13 -13 -13 -13 -14 -14 -15 -15 -16 -17 -17 -18 -19 -19 -19 -20
-4 -5 -5 -5 -5 -5 -5 -5 -5 -5 -6 -5 -5 -6 -6 -6 -7 -7 -7 -8 -9 -9 -10 -10 -11 -12 -12 -13 -13 -13 -13 -14 -14 -15 -15 -16 -17 -17 -18 -19 -19 -19 -20 -20

GFSNGP_850_temp_162.txt.gz
Temp
5 6 7 7 8 9 9 9 9 9 7 9 8 7 7 9 9 8 6 5 5 4 3 2 1 0 -1 -2 -2 -3 -3 -4 -5 -5 -6 -7 -6 -6 -7 -6 -6 -6 -6 -5
6 7 7 7 7 6 8 8 8 8 6 7 8 9 7 8 7 5 6 7 6 5 2 1 0 -0 -1 -1 -2 -3 -4 -4 -5 -5 -6 -7 -7 -7 -7 -7 -7 -7 -6 -6
6 7 7 5 5 6 7 8 8 7 7 5 5 5 7 7 6 7 8 7 7 6 4 1 0 -1 -1 -1 -3 -3 -4 -4 -5 -6 -7 -7 -7 -8 -8 -8 -8 -7 -7 -7
5 5 5 6 7 7 8 8 8 8 6 5 7 7 7 7 8 8 8 7 7 5 3 1 -0 -1 -2 -2 -3 -3 -4 -5 -5 -6 -7 -7 -8 -8 -8 -8 -8 -7 -8 -8
5 5 6 7 7 7 8 8 7 7 6 5 5 6 6 7 8 8 8 7 6 4 3 1 -0 -1 -2 -3 -3 -4 -5 -5 -6 -6 -7 -7 -8 -8 -8 -8 -8 -8 -8 -8
4 4 4 6 8 9 8 6 8 7 5 3 5 3 1 8 8 7 6 6 5 4 2 1 -0 -1 -2 -3 -4 -4 -5 -5 -6 -6 -7 -7 -8 -8 -8 -9 -8 -8 -8 -9
4 4 5 5 8 9 6 6 7 7 5 4 4 5 9 8 7 7 6 5 4 3 2 1 -0 -2 -3 -3 -4 -4 -5 -6 -6 -7 -7 -8 -8 -8 -9 -9 -9 -9 -9 -10
4 4 4 6 7 7 6 7 8 7 7 5 6 7 8 7 7 6 5 4 3 2 1 0 -1 -2 -3 -4 -4 -5 -5 -6 -6 -7 -7 -8 -8 -9 -9 -9 -9 -10 -10 -10
4 4 5 7 8 9 9 9 8 8 8 6 7 7 7 7 6 5 4 3 2 1 1 -1 -2 -3 -3 -4 -5 -5 -6 -6 -7 -7 -8 -8 -8 -9 -9 -9 -10 -10 -10 -11
3 5 5 8 8 8 9 9 9 8 7 7 8 7 7 7 5 4 3 3 2 1 -0 -1 -2 -3 -4 -4 -5 -5 -6 -7 -7 -8 -8 -8 -9 -9 -10 -10 -11 -11 -11 -11
3 3 5 7 7 8 8 8 8 8 8 8 8 7 7 7 6 4 3 2 2 1 1 -1 -2 -3 -4 -4 -5 -5 -6 -7 -7 -8 -8 -9 -9 -10 -10 -10 -11 -11 -12 -12
2 5 4 5 7 7 7 8 7 7 7 7 7 7 7 6 5 4 3 2 1 1 0 -1 -2 -3 -4 -5 -5 -5 -6 -7 -7 -8 -8 -9 -9 -10 -10 -11 -12 -12 -12 -13
4 7 6 7 6 6 7 7 7 7 7 7 8 7 7 6 5 5 3 2 1 1 0 -1 -2 -3 -4 -4 -5 -5 -6 -6 -7 -8 -8 -9 -9 -10 -10 -12 -12 -11 -13 -14
5 5 4 5 6 6 6 6 6 6 6 6 7 7 6 6 5 4 4 3 2 1 -0 -1 -2 -3 -4 -4 -5 -5 -6 -7 -7 -7 -8 -9 -9 -10 -11 -11 -11 -12 -13 -14
5 5 4 5 5 5 6 5 5 5 6 6 6 6 6 5 5 5 3 2 1 0 -1 -1 -2 -3 -4 -4 -5 -6 -7 -7 -8 -8 -9 -9 -10 -11 -11 -12 -12 -13 -14 -14
5 5 4 4 4 4 4 4 4 5 5 5 5 6 6 5 5 4 3 1 1 -0 -1 -2 -2 -3 -4 -5 -6 -6 -7 -7 -8 -8 -9 -9 -10 -11 -11 -12 -13 -13 -14 -15
3 3 4 4 4 4 5 5 4 5 5 5 6 6 5 4 3 3 2 1 0 -0 -1 -2 -2 -4 -5 -5 -6 -7 -7 -8 -8 -9 -9 -9 -10 -10 -11 -12 -13 -14 -14 -15
3 2 2 2 3 3 4 4 4 4 4 5 6 5 4 4 4 3 2 0 -1 -1 -2 -2 -3 -4 -5 -5 -6 -7 -8 -8 -8 -9 -9 -10 -10 -11 -12 -13 -13 -14 -15 -15
3 2 2 2 3 2 3 3 4 4 4 5 5 5 5 4 3 2 1 -0 -1 -2 -2 -3 -4 -4 -5 -6 -7 -7 -8 -8 -9 -9 -10 -11 -11 -12 -12 -13 -14 -15 -15 -16
2 2 1 1 2 2 3 3 3 4 4 4 5 5 4 3 2 1 0 -1 -2 -3 -3 -4 -5 -5 -6 -6 -7 -8 -8 -9 -10 -10 -10 -11 -12 -12 -13 -14 -15 -15 -16 -17
2 2 1 1 2 2 2 3 4 4 4 4 4 4 3 2 1 -0 -1 -3 -3 -5 -4 -5 -5 -6 -6 -7 -8 -8 -9 -10 -10 -11 -11 -12 -12 -13 -13 -14 -15 -16 -17 -17
-2 1 -0 0 1 1 2 2 2 1 1 2 2 0 0 -1 -1 -3 -3 -3 -4 -4 -5 -6 -5 -6 -7 -7 -8 -9 -10 -11 -11 -11 -12 -12 -13 -13 -14 -15 -16 -17 -17 -18
-3 -3 -2 -2 -1 -0 -1 -0 0 -0 -2 -1 -0 -0 -1 -1 -2 -3 -3 -4 -4 -5 -6 -6 -6 -7 -8 -8 -9 -10 -11 -11 -11 -12 -12 -13 -13 -14 -15 -15 -16 -17 -17 -18
-3 -3 -4 -3 -1 -1 -1 -1 -1 -2 -2 -2 -2 -2 -2 -2 -3 -4 -5 -5 -6 -6 -7 -7 -8 -9 -9 -9 -10 -11 -11 -12 -12 -12 -13 -13 -14 -14 -15 -16 -16 -17 -18 -18
-3 -3 -4 -3 -2 -2 -2 -3 -3 -3 -3 -3 -3 -3 -3 -4 -3 -4 -5 -6 -6 -7 -8 -9 -9 -9 -9 -10 -11 -11 -12 -12 -12 -13 -13 -14 -14 -15 -16 -16 -17 -18 -18 -19
-3 -4 -4 -4 -4 -4 -4 -3 -3 -3 -3 -4 -4 -4 -4 -5 -5 -5 -6 -7 -7 -8 -8 -9 -10 -10 -10 -11 -11 -12 -12 -13 -13 -13 -14 -14 -15 -16 -16 -17 -17 -18 -18 -19
-4 -4 -5 -5 -5 -5 -5 -5 -4 -5 -5 -5 -4 -5 -5 -5 -6 -6 -6 -7 -7 -8 -9 -10 -10 -11 -11 -12 -12 -13 -13 -13 -13 -14 -14 -15 -15 -16 -17 -17 -18 -18 -19 -19

GFSNGP_850_temp_165.txt.gz
Temp
6 6 6 7 7 8 8 9 9 9 10 12 10 9 9 8 8 7 7 6 5 5 4 3 2 1 0 -0 -1 -2 -3 -3 -4 -4 -4 -5 -5 -5 -5 -6 -6 -6 -6 -6
5 7 7 6 7 8 9 9 8 10 11 11 9 8 6 8 8 7 6 7 6 5 4 3 2 0 -0 -0 -2 -2 -3 -4 -4 -4 -5 -6 -6 -6 -6 -7 -7 -7 -7 -7
4 7 7 6 6 7 8 10 9 9 11 8 8 8 8 7 7 8 8 8 7 8 6 4 2 1 0 -1 -2 -3 -3 -4 -4 -5 -5 -6 -6 -7 -7 -7 -7 -8 -8 -8
5 6 5 9 8 8 8 9 10 9 9 8 9 9 9 8 8 8 8 8 8 7 6 4 2 0 -1 -1 -2 -3 -3 -4 -5 -5 -6 -6 -7 -7 -8 -8 -8 -8 -8 -8
5 6 7 8 8 7 7 8 9 9 10 8 6 6 7 8 8 9 9 8 7 6 5 4 2 -0 -1 -2 -2 -3 -4 -4 -5 -5 -6 -7 -7 -7 -8 -8 -8 -8 -8 -8
5 5 6 9 9 9 9 8 9 10 9 7 6 7 8 7 8 8 8 7 7 6 4 3 1 -0 -1 -2 -3 -3 -4 -4 -5 -6 -6 -7 -7 -8 -8 -8 -8 -8 -8 -9
4 4 6 8 8 8 7 8 7 8 7 5 7 8 8 8 8 8 7 7 6 5 4 3 1 -0 -1 -2 -3 -3 -4 -5 -6 -6 -7 -7 -8 -8 -8 -9 -9 -9 -9 -9
4 5 5 6 7 6 8 7 8 8 7 5 6 7 8 8 8 7 7 6 5 4 3 2 1 -0 -1 -2 -3 -4 -5 -5 -6 -7 -7 -8 -8 -8 -8 -9 -9 -9 -9 -9
5 5 5 5 5 6 8 9 9 8 8 7 7 7 8 8 7 7 6 5 4 3 2 1 -0 -1 -2 -3 -4 -4 -5 -6 -6 -7 -7 -8 -8 -8 -8 -9 -9 -9 -10 -10
4 5 4 4 6 6 6 9 9 9 7 6 7 7 7 7 7 6 5 4 3 2 1 0 -1 -1 -2 -3 -4 -5 -5 -6 -7 -7 -8 -8 -8 -9 -9 -9 -9 -10 -10 -10
4 5 4 4 4 5 6 7 8 8 7 7 7 7 7 7 6 6 5 4 3 2 1 0 -1 -2 -3 -4 -4 -5 -6 -6 -7 -8 -8 -8 -9 -9 -9 -9 -10 -10 -11 -11
5 5 5 6 7 6 6 7 7 7 6 6 7 7 6 6 6 6 5 3 2 2 1 0 -1 -2 -3 -4 -4 -5 -6 -7 -7 -8 -8 -8 -9 -9 -10 -11 -11 -11 -12 -12
5 5 4 5 6 6 6 7 6 6 7 7 7 7 6 7 6 6 5 4 3 2 1 0 -1 -2 -3 -4 -4 -5 -5 -6 -7 -7 -8 -8 -9 -9 -9 -11 -11 -12 -12 -13
5 4 4 5 5 6 6 6 6 6 6 6 6 6 6 6 5 5 5 5 3 2 1 1 -1 -2 -3 -4 -4 -5 -5 -6 -6 -7 -7 -8 -9 -9 -10 -11 -12 -12 -13 -14
5 4 4 4 4 5 5 5 5 5 5 5 6 6 6 5 5 5 5 4 3 1 1 -0 -1 -2 -3 -4 -4 -5 -6 -6 -7 -7 -8 -8 -9 -10 -10 -11 -12 -13 -13 -14
4 4 3 4 4 4 4 4 4 5 5 5 5 5 5 6 6 5 4 3 3 2 1 -0 -1 -2 -3 -4 -4 -5 -6 -6 -7 -8 -8 -9 -10 -10 -11 -11 -12 -13 -13 -14
2 2 3 3 3 3 3 3 3 4 4 4 5 5 5 5 5 4 3 3 2 2 1 -0 -2 -2 -3 -4 -4 -5 -6 -6 -7 -8 -8 -9 -9 -10 -11 -11 -12 -13 -13 -14
2 1 1 2 1 2 3 3 2 2 3 4 4 4 4 5 5 4 3 2 1 -0 -1 -1 -1 -2 -3 -4 -5 -5 -6 -7 -8 -8 -9 -9 -10 -11 -11 -12 -12 -13 -14 -14
2 2 2 2 2 1 2 2 2 2 3 3 3 4 5 4 4 3 2 2 1 -0 -2 -2 -2 -3 -3 -5 -5 -6 -7 -7 -8 -8 -9 -10 -10 -11 -12 -12 -13 -13 -14 -15
2 2 1 1 3 2 2 2 2 2 3 3 3 3 4 4 3 2 2 1 1 -0 -2 -2 -3 -4 -4 -5 -6 -6 -7 -8 -8 -9 -10 -10 -11 -11 -12 -13 -13 -14 -14 -15
1 2 1 1 3 2 1 1 1 2 3 3 3 3 3 4 2 1 1 0 -1 -3 -3 -4 -4 -5 -5 -5 -6 -7 -8 -8 -9 -9 -10 -10 -11 -12 -12 -13 -14 -14 -15 -16
-1 -1 -2 -3 -2 -1 -0 -0 0 0 1 0 1 1 1 1 -0 -1 -1 -1 -3 -3 -4 -4 -4 -5 -5 -6 -6 -7 -8 -9 -9 -10 -11 -11 -12 -12 -13 -13 -14 -15 -16 -16
-1 -3 -4 -3 -3 -2 -1 -0 -0 -1 -1 -1 -1 -1 -1 -0 -1 -2 -3 -4 -3 -4 -5 -4 -5 -6 -6 -6 -7 -8 -8 -9 -10 -11 -11 -12 -12 -13 -13 -14 -15 -15 -16 -17
-2 -3 -3 -4 -3 -2 -2 -2 -1 -1 -2 -2 -2 -2 -2 -2 -3 -3 -3 -3 -4 -5 -4 -5 -6 -6 -7 -7 -8 -9 -9 -10 -11 -11 -12 -13 -13 -13 -14 -14 -15 -16 -16 -17
-2 -3 -4 -3 -3 -3 -3 -2 -3 -3 -3 -3 -3 -3 -3 -3 -2 -3 -4 -4 -5 -5 -6 -6 -6 -7 -8 -9 -9 -9 -10 -11 -12 -12 -12 -13 -13 -13 -14 -15 -15 -16 -17 -18
-2 -3 -4 -4 -4 -4 -4 -3 -4 -3 -3 -3 -4 -4 -4 -4 -4 -4 -5 -5 -6 -6 -7 -7 -8 -9 -9 -10 -10 -10 -11 -12 -12 -12 -13 -13 -13 -14 -15 -15 -16 -17 -17 -18
-3 -3 -4 -5 -4 -4 -5 -5 -5 -4 -5 -5 -4 -5 -5 -5 -5 -5 -6 -6 -7 -7 -8 -8 -9 -9 -10 -10 -11 -11 -12 -12 -12 -13 -13 -13 -14 -14 -15 -16 -16 -17 -18 -18

GFSNGP_850_temp_171.txt.gz
Temp
8 10 10 10 11 11 11 11 9 10 11 13 15 15 13 12 13 10 8 6 4 3 3 1 1 0 -0 0 1 -0 0 0 -1 -2 -2 -2 -2 -3 -3 -3 -3 -3 -3 -4
7 9 10 10 11 11 12 12 12 12 12 15 15 15 15 14 14 12 10 8 5 3 3 2 2 -1 -0 -1 -2 -2 -2 -2 -2 -2 -2 -2 -3 -3 -4 -4 -4 -4 -4 -5
7 10 11 9 9 11 12 13 13 12 14 15 14 14 14 14 14 13 13 11 7 4 4 3 2 1 1 -0 -1 -2 -3 -4 -5 -4 -4 -4 -4 -6 -6 -6 -7 -5 -5 -7
7 8 6 10 13 13 13 14 15 15 15 15 15 14 14 13 14 13 14 13 9 5 5 5 3 2 1 -0 -1 -2 -3 -4 -5 -5 -6 -6 -6 -7 -7 -7 -8 -8 -8 -8
6 7 9 11 13 13 13 13 15 14 14 15 15 14 13 11 10 11 11 11 8 6 5 4 3 1 1 -0 -1 -2 -3 -3 -4 -5 -5 -5 -6 -6 -6 -7 -7 -8 -9 -9
7 6 7 11 13 7 10 10 13 12 13 14 13 11 12 11 10 10 9 9 7 5 4 3 2 1 1 -0 -1 -2 -3 -4 -4 -4 -5 -5 -6 -6 -6 -7 -8 -9 -9 -8
6 6 6 9 11 10 8 9 10 10 11 11 9 6 10 10 10 9 10 8 5 4 4 4 2 1 1 -0 -2 -3 -3 -4 -4 -5 -5 -6 -6 -7 -7 -8 -9 -9 -8 -7
7 6 6 9 10 8 8 9 8 8 8 8 9 9 9 8 8 8 8 7 5 5 4 3 2 1 1 -0 -2 -2 -3 -4 -4 -5 -6 -6 -7 -7 -8 -9 -9 -8 -10 -11
7 7 6 4 8 8 7 6 7 6 5 7 7 9 9 8 8 8 7 6 6 5 4 2 2 1 1 0 -1 -2 -3 -4 -4 -5 -6 -7 -7 -8 -8 -9 -10 -10 -10 -10
8 10 10 10 9 7 6 4 4 4 6 7 8 8 7 6 7 7 7 6 6 4 3 2 2 1 2 0 -1 -2 -3 -4 -4 -5 -6 -6 -7 -8 -8 -9 -9 -9 -9 -9
9 9 10 9 8 8 6 5 5 5 5 6 7 8 7 7 7 8 7 6 5 4 3 2 2 1 1 -0 -1 -2 -3 -4 -4 -5 -6 -6 -7 -8 -8 -8 -8 -9 -9 -9
7 9 9 9 8 8 8 7 6 6 7 7 6 5 7 7 7 7 6 5 4 4 3 2 1 1 0 -1 -2 -2 -3 -4 -5 -5 -6 -6 -7 -8 -8 -9 -9 -9 -10 -10
9 9 8 8 7 7 8 8 8 8 7 7 6 5 5 4 4 5 5 5 4 4 3 2 1 0 -1 -2 -2 -3 -3 -4 -5 -6 -6 -7 -7 -9 -9 -10 -10 -10 -10 -10
8 8 8 7 8 8 8 8 7 7 7 7 6 6 5 4 3 3 4 4 3 3 3 1 0 -1 -1 -2 -3 -3 -3 -4 -5 -6 -7 -7 -8 -9 -11 -11 -10 -11 -11 -11
7 7 7 7 7 7 7 7 7 7 7 7 7 6 6 5 5 4 4 4 3 3 2 1 -0 -0 -0 -1 -3 -4 -4 -5 -6 -7 -8 -8 -9 -9 -10 -11 -11 -12 -13 -14
7 7 7 7 7 7 7 7 7 7 6 6 6 6 6 6 5 4 3 3 3 3 2 0 -0 1 1 -1 -2 -4 -5 -5 -6 -7 -8 -9 -9 -9 -10 -10 -11 -12 -13 -14
6 7 7 8 7 6 6 6 5 5 4 4 3 3 3 3 4 4 3 3 3 3 2 1 1 1 0 -1 -2 -3 -5 -5 -6 -7 -9 -9 -9 -9 -9 -10 -10 -11 -12 -12
6 6 5 5 4 4 3 3 2 1 1 1 1 2 2 2 3 4 3 3 2 1 1 1 1 0 -0 -1 -3 -4 -5 -5 -6 -8 -9 -9 -9 -9 -9 -10 -10 -11 -11 -12
4 4 3 3 2 1 1 0 0 1 1 1 2 2 2 2 2 3 3 2 1 1 1 0 0 -0 -1 -2 -5 -6 -6 -5 -7 -8 -9 -9 -9 -9 -9 -10 -10 -11 -11 -12
3 2 1 1 1 2 1 1 1 -0 0 -0 1 1 2 2 1 2 2 2 3 1 0 -0 -1 -2 -2 -3 -4 -6 -7 -6 -7 -8 -8 -9 -9 -9 -10 -10 -10 -11 -12 -13
2 2 2 1 1 1 1 0 -0 -1 -1 -1 0 0 0 0 -0 0 0 0 1 -1 -1 -1 -1 -2 -3 -4 -5 -7 -6 -6 -7 -8 -8 -8 -10 -10 -10 -11 -11 -12 -13 -14
1 1 1 1 0 -0 -1 -1 -2 -2 -1 -1 -0 -1 -2 -3 -2 -2 -2 -2 -2 -2 -3 -2 -3 -4 -4 -4 -7 -7 -6 -7 -7 -8 -8 -9 -10 -11 -11 -12 -12 -12 -13 -14
1 0 1 -0 -2 -2 -2 -2 -2 -2 -2 -1 -1 -2 -3 -4 -5 -4 -4 -3 -3 -3 -3 -3 -4 -4 -4 -6 -7 -6 -7 -7 -7 -8 -9 -10 -11 -11 -12 -12 -13 -13 -14 -15
0 0 -0 -2 -3 -3 -3 -3 -4 -3 -2 -2 -2 -3 -5 -5 -5 -4 -4 -4 -4 -3 -4 -6 -7 -6 -6 -6 -7 -7 -7 -7 -8 -8 -10 -11 -11 -12 -12 -13 -14 -14 -15 -16
0 -1 -2 -2 -3 -4 -3 -4 -4 -3 -4 -4 -4 -5 -5 -5 -5 -5 -5 -5 -5 -6 -6 -6 -5 -6 -6 -6 -7 -7 -8 -8 -9 -10 -10 -11 -12 -13 -13 -14 -14 -15 -16 -17
-2 -2 -2 -3 -4 -3 -4 -4 -4 -4 -5 -5 -5 -5 -5 -5 -5 -5 -5 -6 -7 -7 -6 -6 -6 -7 -7 -7 -8 -8 -8 -9 -9 -10 -11 -12 -12 -14 -14 -14 -15 -16 -16 -17
-3 -3 -3 -3 -4 -4 -5 -5 -5 -5 -5 -5 -6 -5 -5 -5 -5 -5 -6 -6 -6 -6 -6 -7 -7 -8 -8 -9 -9 -9 -9 -9 -10 -11 -12 -12 -13 -14 -14 -14 -14 -15 -16 -16

GFSNGP_850_temp_174.txt.gz
Temp
8 10 10 10 11 11 10 8 7 8 10 12 13 14 14 14 14 12 10 10 9 8 7 6 5 3 2 1 1 0 0 0 0 0 0 0 -0 -1 -1 -1 -2 -2 -2 -2
7 9 9 9 10 10 11 11 11 12 11 14 14 15 15 15 15 13 12 10 8 6 6 4 4 2 1 0 -0 -1 -0 -0 -0 -0 -0 -0 -1 -1 -1 -2 -2 -3 -3 -3
6 9 9 8 8 10 11 12 12 11 13 15 15 15 15 15 15 14 13 11 8 6 5 4 3 2 2 -1 -1 -2 -1 -1 -1 -1 -1 -1 -2 -2 -2 -3 -3 -4 -4 -5
6 7 5 9 12 12 12 13 14 14 14 15 15 15 15 15 15 14 14 13 10 6 4 3 2 3 2 1 -1 -2 -3 -3 -2 -2 -2 -2 -3 -3 -4 -4 -4 -5 -6 -8
6 6 8 10 12 12 11 11 12 10 11 11 12 11 11 9 12 12 11 11 10 7 5 3 4 4 2 0 -1 -2 -2 -3 -4 -3 -4 -4 -5 -6 -6 -6 -7 -7 -8 -8
7 6 6 10 12 11 8 8 6 8 9 9 10 8 9 7 7 6 10 9 7 5 4 3 2 2 2 1 -0 -2 -2 -3 -3 -4 -5 -5 -5 -6 -6 -6 -7 -7 -8 -8
5 5 6 11 9 8 7 6 8 8 9 8 8 8 6 7 7 8 8 7 7 6 4 4 2 2 1 0 -0 -1 -2 -3 -3 -4 -4 -5 -5 -6 -6 -6 -7 -8 -7 -7
7 6 6 6 9 6 7 8 8 8 8 6 7 7 6 7 6 5 7 7 5 4 4 3 3 2 1 0 -1 -1 -2 -3 -4 -4 -4 -5 -5 -6 -6 -7 -8 -8 -7 -7
6 8 6 4 5 8 8 7 6 6 6 5 5 5 7 7 7 8 7 5 5 4 4 3 2 2 1 0 -1 -2 -3 -3 -4 -4 -5 -5 -6 -6 -7 -8 -8 -8 -9 -9
4 9 8 5 4 6 7 6 6 5 5 5 5 5 5 6 7 8 7 6 6 5 4 3 2 2 1 0 -1 -2 -3 -3 -4 -5 -5 -6 -6 -7 -7 -8 -8 -9 -9 -9
5 9 10 9 9 8 8 7 6 6 6 6 6 6 5 6 7 7 7 7 6 4 3 3 2 2 2 0 -1 -2 -3 -3 -4 -5 -5 -6 -7 -7 -8 -8 -8 -9 -9 -9
4 8 8 9 8 8 8 8 7 7 7 7 7 6 5 3 4 7 7 7 6 5 4 3 2 2 2 0 -1 -2 -3 -4 -4 -5 -5 -6 -7 -7 -8 -8 -8 -9 -9 -9
9 9 9 9 8 8 8 8 8 8 8 8 7 6 5 5 4 4 5 6 5 4 4 3 2 2 1 0 -1 -2 -3 -3 -4 -5 -5 -6 -6 -7 -7 -8 -8 -8 -9 -9
7 8 9 9 9 8 8 8 8 8 8 7 7 6 5 5 5 5 4 3 4 3 3 3 2 2 1 -0 -1 -2 -3 -3 -4 -5 -5 -6 -6 -7 -7 -8 -8 -9 -10 -10
7 8 8 8 8 8 8 8 8 8 8 8 7 7 7 5 5 4 4 4 1 2 3 2 1 1 1 -0 -1 -2 -3 -3 -4 -5 -5 -6 -7 -7 -8 -8 -9 -9 -10 -10
8 8 8 8 8 8 8 8 7 7 6 6 6 6 5 5 5 5 5 4 2 2 3 2 2 1 0 -0 -1 -2 -3 -3 -4 -5 -6 -7 -7 -7 -8 -9 -10 -10 -11 -11
7 7 7 7 8 7 7 6 5 5 3 3 3 4 4 3 4 4 4 4 5 3 3 2 2 2 0 -0 -1 -2 -3 -4 -4 -5 -6 -7 -7 -8 -9 -9 -10 -10 -11 -11
7 7 7 6 5 5 5 4 3 2 2 3 2 2 2 2 2 2 3 3 3 3 3 3 2 1 0 -0 -2 -3 -3 -4 -5 -5 -6 -7 -7 -8 -9 -9 -10 -10 -11 -11
6 6 5 4 3 2 2 2 1 2 2 2 2 2 2 1 1 1 1 2 2 2 3 2 2 1 0 -1 -2 -3 -4 -5 -5 -7 -6 -7 -8 -8 -9 -9 -9 -10 -10 -11
5 3 3 2 2 3 2 2 1 1 2 1 0 1 1 1 1 1 1 1 1 1 1 2 1 0 -0 -1 -3 -4 -5 -5 -6 -7 -7 -7 -8 -9 -9 -9 -9 -10 -10 -11
3 3 3 3 2 2 1 1 -0 -1 -1 -2 -1 -1 -0 0 0 0 -1 -2 -0 -0 -0 0 -0 -1 -1 -2 -4 -5 -5 -5 -7 -8 -8 -8 -8 -9 -9 -9 -9 -10 -10 -11
2 2 2 2 1 -0 -1 -2 -2 -3 -3 -3 -2 -2 -1 -1 -2 -2 -4 -3 -3 -2 -2 -2 -2 -2 -2 -3 -5 -6 -6 -6 -7 -8 -8 -8 -8 -9 -9 -9 -10 -10 -11 -11
2 2 1 0 -1 -2 -2 -2 -3 -4 -4 -3 -3 -3 -3 -4 -3 -4 -4 -4 -4 -3 -3 -4 -3 -4 -3 -4 -6 -6 -6 -6 -7 -8 -8 -8 -9 -9 -9 -10 -10 -11 -11 -12
1 0 -0 -1 -1 -2 -3 -3 -3 -4 -4 -4 -4 -4 -4 -4 -5 -4 -4 -4 -4 -4 -4 -4 -4 -5 -6 -6 -6 -7 -6 -7 -7 -8 -8 -9 -9 -9 -10 -10 -11 -12 -12 -13
1 0 -1 -2 -3 -3 -3 -3 -4 -4 -4 -5 -4 -4 -5 -5 -5 -5 -5 -5 -5 -5 -5 -5 -6 -5 -6 -6 -6 -6 -7 -7 -8 -8 -9 -9 -10 -10 -11 -11 -12 -12 -13 -13
-0 -1 -2 -3 -3 -3 -3 -4 -4 -4 -4 -4 -5 -5 -4 -5 -5 -5 -6 -6 -7 -7 -7 -7 -7 -7 -7 -7 -7 -7 -7 -8 -8 -9 -9 -10 -10 -11 -11 -12 -12 -13 -13 -14
-1 -2 -3 -3 -3 -3 -4 -4 -5 -4 -5 -5 -5 -6 -6 -6 -6 -6 -7 -8 -7 -7 -7 -8 -8 -8 -8 -7 -7 -8 -8 -8 -9 -9 -10 -10 -11 -12 -12 -12 -13 -13 -14 -14

GFSNGP_850_temp_180.txt.gz
Temp
5 6 7 8 7 8 8 7 7 8 8 10 10 9 10 10 11 11 10 9 10 11 11 10 8 7 6 6 5 5 4 4 3 2 2 1 1 -0 -1 0 -0 -1 -1 -1
4 6 7 5 6 7 8 8 8 8 8 10 10 10 10 11 11 11 12 12 11 12 11 9 8 7 6 5 5 4 4 3 2 2 2 1 -1 -1 -2 -1 -1 -2 -2 -2
5 7 7 5 5 6 8 9 8 7 9 9 8 8 7 8 9 9 10 11 12 10 11 11 10 9 6 5 4 3 3 3 2 1 -0 -1 -3 -2 -2 -2 -2 -3 -4 -3
4 5 4 6 8 8 8 9 9 9 8 8 7 7 7 7 7 7 8 9 10 11 10 7 5 5 4 4 4 3 3 2 2 0 -1 -2 -3 -1 -2 -3 -3 -3 -4 -4
4 3 5 7 8 8 8 7 6 6 6 7 7 7 6 6 6 6 7 7 8 8 9 6 5 4 2 2 2 2 1 1 -0 -0 -0 -2 -2 -1 -1 -3 -4 -3 -4 -5
2 3 3 6 7 8 8 4 6 6 6 5 6 4 2 6 6 7 6 7 7 7 6 5 3 2 2 2 1 0 1 -1 -1 -1 -2 -2 -2 -1 -2 -4 -4 -4 -5 -6
2 1 2 5 6 7 6 5 5 6 6 5 4 4 5 5 6 6 6 6 6 6 5 5 3 2 1 1 -1 -1 0 -1 -1 -1 -3 -3 -1 -2 -3 -5 -5 -5 -6 -6
4 4 4 5 7 6 5 5 5 6 5 5 5 5 5 5 5 6 5 6 6 5 4 2 1 0 -1 -2 -1 -0 -1 -2 -1 -2 -3 -3 -2 -3 -5 -5 -6 -6 -7 -7
4 2 3 4 5 6 6 6 6 6 5 5 5 5 5 5 5 5 6 5 4 4 3 1 -1 -1 -0 -0 -0 -2 -2 -1 -2 -3 -3 -3 -3 -4 -6 -6 -6 -6 -7 -7
3 4 4 4 3 4 4 6 7 6 6 6 5 5 5 5 4 4 4 4 4 3 3 1 -0 -0 -0 0 1 0 -0 -2 -2 -3 -4 -4 -4 -5 -5 -6 -6 -6 -7 -7
2 3 3 3 2 1 2 4 6 6 6 7 6 5 5 5 3 4 4 4 3 3 2 1 1 1 1 0 -1 -1 -1 -2 -2 -3 -3 -4 -4 -4 -5 -5 -5 -5 -6 -6
-1 3 3 2 2 1 4 5 6 7 6 7 7 7 6 5 4 3 3 4 3 3 3 3 2 1 0 -0 -1 -1 -2 -2 -2 -3 -3 -4 -5 -5 -5 -5 -5 -6 -7 -7
3 5 4 4 3 5 3 4 7 7 7 7 7 7 6 5 4 3 2 2 3 4 3 3 2 1 0 0 0 0 0 -1 -2 -3 -3 -4 -4 -5 -6 -7 -7 -7 -7 -7
3 3 4 4 5 6 6 7 7 7 7 7 7 6 5 5 4 4 4 5 4 3 3 3 3 2 1 1 1 0 -0 -1 -1 -2 -3 -4 -4 -5 -6 -6 -7 -8 -8 -8
3 4 3 4 4 5 7 7 7 6 5 5 5 5 4 4 3 3 3 3 3 3 3 3 2 2 2 2 1 1 -0 -1 -2 -2 -3 -3 -4 -5 -6 -6 -7 -7 -8 -9
4 4 5 5 5 6 7 6 6 5 5 5 4 4 3 3 3 3 3 3 3 3 3 3 3 2 2 1 1 1 0 -1 -1 -2 -3 -4 -5 -5 -6 -6 -7 -7 -8 -8
3 4 5 5 6 5 5 5 5 5 5 4 4 3 2 2 2 2 3 3 3 3 2 3 3 1 0 -0 -0 0 -0 -1 -2 -2 -3 -4 -4 -5 -6 -6 -6 -7 -7 -8
4 3 5 5 5 4 4 4 4 3 3 3 3 2 2 2 3 2 2 2 2 2 3 2 2 1 0 0 -0 -1 -0 -1 -2 -2 -3 -4 -4 -5 -5 -6 -6 -7 -7 -8
2 3 4 4 4 4 3 3 3 2 2 1 1 1 1 2 1 1 1 1 2 2 3 2 2 1 1 0 -1 -1 -1 -1 -1 -2 -3 -3 -4 -5 -6 -6 -6 -7 -7 -8
1 3 2 3 3 3 3 2 2 1 0 -2 -3 -1 0 -2 -2 -1 -1 0 1 0 1 1 1 1 0 0 -0 -1 -1 -1 -2 -3 -3 -4 -5 -5 -6 -6 -7 -7 -7 -8
2 1 2 2 2 2 2 1 1 -0 -2 -3 -2 -2 -2 -3 -3 -3 -3 -2 -1 -1 -3 -3 -2 -0 1 2 1 -1 -1 -2 -2 -3 -3 -4 -5 -6 -6 -7 -7 -8 -7 -8
2 1 1 2 2 1 1 -1 -1 -2 -2 -3 -2 -2 -3 -4 -4 -4 -4 -4 -3 -4 -4 -3 -3 -2 -1 0 0 -1 -1 -2 -2 -3 -4 -4 -5 -5 -6 -6 -8 -8 -8 -8
2 1 1 1 1 -0 -2 -2 -2 -3 -4 -3 -2 -2 -3 -4 -5 -5 -4 -3 -4 -4 -4 -3 -3 -3 -2 -2 -2 -2 -2 -2 -3 -3 -4 -5 -6 -5 -6 -7 -8 -9 -9 -9
1 1 0 1 0 -1 -2 -3 -3 -4 -4 -3 -3 -4 -5 -5 -4 -5 -5 -4 -4 -5 -4 -4 -4 -4 -3 -3 -3 -3 -3 -3 -4 -5 -5 -5 -6 -6 -7 -7 -8 -9 -9 -9
0 -0 -1 -1 -2 -2 -3 -3 -4 -4 -4 -5 -5 -5 -6 -6 -5 -4 -4 -4 -5 -5 -5 -5 -4 -4 -4 -4 -4 -4 -4 -5 -5 -5 -5 -6 -6 -7 -7 -7 -8 -9 -9 -9
-1 -1 -1 -2 -2 -3 -3 -4 -4 -5 -5 -5 -5 -5 -6 -6 -5 -4 -4 -5 -6 -6 -6 -5 -5 -5 -5 -5 -5 -5 -5 -6 -6 -6 -6 -6 -7 -7 -7 -8 -8 -9 -9 -9
-1 -1 -2 -3 -4 -4 -4 -4 -4 -5 -5 -5 -5 -6 -6 -5 -5 -5 -5 -6 -6 -6 -7 -6 -6 -6 -6 -6 -6 -6 -6 -6 -6 -6 -7 -7 -7 -8 -8 -8 -9 -9 -9 -10

GFSNGP_850_temp_183.txt.gz
Temp
5 4 4 4 7 6 6 6 5 6 8 8 10 9 9 10 9 10 10 10 10 10 10 12 9 9 8 7 6 6 6 5 5 4 3 3 2 1 0 -1 0 -1 -2 -1
4 6 4 4 6 6 7 7 8 8 7 9 9 9 9 9 9 9 9 10 10 10 10 10 11 10 9 7 6 6 5 5 4 3 2 2 2 1 -0 -2 1 -1 -2 -2
5 6 6 5 5 6 7 8 7 6 7 8 8 7 7 8 7 8 8 8 8 8 8 10 11 11 10 9 7 5 5 4 3 2 2 1 0 1 -1 -2 -1 -1 -3 -3
4 5 4 6 8 7 7 7 8 8 8 7 7 7 7 6 6 6 7 7 8 8 8 8 7 7 6 5 5 4 3 3 2 1 -0 -0 -1 -1 -2 -2 -0 -1 -2 -3
3 4 5 7 7 7 6 7 7 6 7 6 6 6 5 5 5 6 6 7 7 8 7 7 7 6 4 3 1 2 3 2 2 1 -1 -1 -1 -1 -2 -2 -1 -3 -3 -3
3 4 4 6 6 8 7 4 5 6 6 5 5 3 2 6 6 6 6 7 7 7 7 7 7 4 3 1 1 2 2 2 1 -0 -2 -2 -0 -1 -2 -3 -2 -4 -4 -4
4 3 4 5 5 6 5 5 4 5 5 4 3 3 5 5 6 5 5 5 6 6 6 5 4 3 2 1 0 -0 -1 -0 -0 -2 -3 -2 -2 -2 -3 -4 -4 -5 -5 -5
4 3 4 5 5 5 4 5 5 5 5 5 5 5 5 5 5 5 5 6 6 5 5 4 3 2 -0 -1 -2 -3 -3 -3 -3 -3 -2 -2 -3 -2 -4 -4 -5 -5 -5 -7
3 2 2 4 4 5 4 4 5 5 5 5 5 5 5 5 5 5 4 4 5 4 3 3 2 1 -1 -2 -3 -3 -4 -3 -2 -2 -2 -3 -3 -3 -4 -4 -5 -5 -6 -6
2 2 3 3 3 3 3 3 4 5 6 6 6 6 5 5 5 5 3 3 3 3 3 1 0 -0 -2 -2 -2 -3 -3 -2 -2 -2 -3 -4 -3 -4 -3 -4 -4 -6 -6 -6
2 3 3 2 2 2 3 4 5 5 5 6 6 6 6 5 5 4 3 3 3 3 3 1 0 -1 -2 -2 -2 -2 -2 -2 -3 -3 -3 -4 -4 -3 -3 -3 -4 -4 -4 -4
-1 2 2 3 3 2 2 4 6 5 5 6 6 6 6 5 5 4 2 3 3 3 3 2 1 0 -0 -1 -1 -1 -2 -2 -2 -3 -3 -3 -3 -4 -5 -5 -4 -5 -5 -6
1 3 3 3 3 4 3 3 4 5 5 6 6 6 6 5 5 4 4 4 4 4 3 3 2 2 2 2 -0 -0 -0 -1 -2 -2 -3 -4 -4 -4 -5 -6 -6 -6 -6 -7
2 2 2 3 3 5 5 4 6 6 7 7 6 6 5 5 4 4 4 3 3 3 3 3 3 3 2 2 1 0 -1 -1 -1 -2 -2 -3 -3 -4 -5 -5 -6 -7 -7 -7
2 2 2 3 3 3 5 4 4 5 6 6 6 5 5 4 3 3 4 4 3 3 2 3 3 3 2 2 1 1 -0 -1 -1 -2 -3 -3 -4 -4 -4 -5 -5 -6 -7 -8
3 2 3 3 4 4 5 4 4 5 5 5 4 4 4 4 3 3 3 3 3 3 2 2 3 3 2 2 1 0 0 0 -1 -1 -2 -3 -3 -3 -4 -5 -6 -6 -7 -7
2 2 3 3 4 5 5 4 4 4 4 4 4 4 3 3 3 3 2 2 2 2 2 2 2 2 2 1 1 -1 -1 -1 -1 -1 -2 -2 -2 -3 -4 -5 -6 -6 -6 -6
2 3 3 4 3 4 3 3 4 3 3 3 3 3 3 3 3 3 2 2 2 3 2 2 1 1 1 0 0 -1 -1 -1 -1 -1 -1 -2 -3 -3 -4 -5 -5 -6 -6 -7
2 2 3 3 3 3 3 3 3 2 3 3 2 2 2 2 2 2 2 1 2 2 2 1 1 1 -0 -0 -1 -0 -0 -1 -2 -2 -2 -2 -3 -3 -4 -5 -5 -6 -6 -7
1 2 -0 1 2 3 2 2 3 2 2 1 1 1 -0 -1 -2 -2 -3 -1 -0 -1 -0 1 1 0 -0 -1 -1 -1 -0 -1 -2 -2 -2 -3 -3 -3 -4 -5 -5 -6 -6 -7
1 0 -0 -0 1 2 2 2 2 2 0 -0 -3 -5 -4 -5 -5 -6 -5 -3 -2 -3 -3 -3 -3 -3 -3 -3 -2 -1 -1 -1 -2 -2 -2 -2 -3 -3 -4 -5 -5 -6 -6 -7
1 1 1 -0 -0 1 1 1 1 -1 -2 -4 -4 -3 -3 -5 -5 -4 -5 -4 -4 -4 -4 -4 -4 -3 -3 -3 -3 -3 -2 -2 -2 -2 -2 -3 -3 -3 -4 -4 -5 -6 -6 -7
1 0 -1 0 1 -0 -0 -1 -1 -3 -4 -4 -4 -4 -4 -4 -4 -3 -3 -4 -4 -4 -4 -3 -3 -3 -3 -3 -3 -3 -3 -2 -3 -2 -2 -3 -3 -4 -4 -5 -5 -6 -6 -7
0 1 1 -0 -1 -2 -3 -3 -4 -4 -4 -5 -5 -5 -5 -4 -4 -4 -5 -4 -4 -4 -4 -4 -4 -4 -3 -3 -4 -4 -4 -4 -4 -3 -3 -4 -4 -5 -5 -6 -6 -6 -7 -7
-1 -1 -2 -2 -2 -3 -3 -3 -4 -4 -5 -5 -5 -5 -6 -6 -6 -4 -4 -4 -5 -5 -5 -4 -4 -4 -4 -4 -4 -4 -4 -4 -4 -5 -5 -5 -5 -5 -6 -6 -7 -7 -7 -8
-1 -1 -2 -2 -3 -3 -4 -4 -4 -5 -5 -5 -5 -6 -6 -7 -4 -4 -5 -5 -5 -5 -5 -5 -5 -5 -5 -5 -5 -5 -5 -5 -5 -5 -6 -6 -6 -6 -7 -7 -7 -7 -8 -9
-2 -2 -2 -3 -3 -4 -4 -4 -4 -4 -5 -5 -6 -6 -6 -6 -5 -5 -6 -6 -6 -6 -6 -6 -6 -6 -6 -6 -6 -6 -6 -6 -6 -6 -6 -7 -7 -7 -7 -8 -8 -8 -8 -9